PD2BVG Weather Reports


time (UTC)temp
C
wind
direction
speed
KPH
gust
KPH
rain 1hr
cm
rain 24hr
cm
rain mn
cm
humidity
%
barometer
mb
20260507105237 14 336 8.0 17.7 0.00 0.00 0.00 65 1017.3
20260507105034 14 275 9.7 17.7 0.00 0.00 0.00 63 1017.2
20260507104936 14 286 11.3 17.7 0.00 0.00 0.00 63 1017.1
20260507104834 15 276 9.7 17.7 0.00 0.00 0.00 65 1017.1
20260507104735 14 293 8.0 17.7 0.00 0.00 0.00 65 1017.1
20260507104635 15 289 9.7 17.7 0.00 0.00 0.00 66 1017.2
20260507104535 15 285 11.3 17.7 0.00 0.00 0.00 66 1017.2
20260507104436 15 324 9.7 17.7 0.00 0.00 0.00 67 1017.2
20260507104335 15 252 9.7 16.1 0.00 0.00 0.00 66 1017.2
20260507104237 15 278 9.7 16.1 0.00 0.00 0.00 65 1017.2
20260507104134 15 266 11.3 16.1 0.00 0.00 0.00 64 1017.2
20260507104035 15 300 11.3 16.1 0.00 0.00 0.00 64 1017.2
20260507103935 15 278 9.7 14.5 0.00 0.00 0.00 64 1017.1
20260507103835 15 279 8.0 14.5 0.00 0.00 0.00 62 1017.2
20260507103736 15 261 6.4 14.5 0.00 0.00 0.00 59 1017.3
20260507103635 15 276 8.0 14.5 0.00 0.00 0.00 60 1017.2
20260507103535 15 334 6.4 14.5 0.00 0.00 0.00 59 1017.2
20260507103436 15 320 6.4 14.5 0.00 0.00 0.00 59 1017.3
20260507103336 15 0 8.0 14.5 0.00 0.00 0.00 57 1017.3
20260507103235 15 1 6.4 14.5 0.00 0.00 0.00 57 1017.2
20260507103135 15 340 3.2 14.5 0.00 0.00 0.00 57 1017.3
20260507103034 15 340 6.4 16.1 0.00 0.00 0.00 54 1017.2
20260507102934 15 0 6.4 16.1 0.00 0.00 0.00 53 1017.2
20260507102835 15 4 6.4 16.1 0.00 0.00 0.00 59 1017.3
20260507102735 15 0 8.0 16.1 0.00 0.00 0.00 60 1017.2
20260507102635 15 357 8.0 16.1 0.00 0.00 0.00 61 1017.2
20260507102536 15 3 6.4 16.1 0.00 0.00 0.00 60 1017.2
20260507102435 15 329 6.4 16.1 0.00 0.00 0.00 57 1017.2
20260507102337 15 329 6.4 16.1 0.00 0.00 0.00 59 1017.2
20260507102236 14 355 8.0 16.1 0.00 0.00 0.00 59 1017.2
20260507102135 14 1 9.7 16.1 0.00 0.00 0.00 58 1017.2
20260507102036 14 326 8.0 14.5 0.00 0.00 0.00 58 1017.1
20260507101936 14 348 6.4 14.5 0.00 0.00 0.00 58 1017.1
20260507101834 14 0 8.0 14.5 0.00 0.00 0.00 60 1017.2
20260507101735 14 0 9.7 14.5 0.00 0.00 0.00 60 1017.2
20260507101634 14 331 9.7 14.5 0.00 0.00 0.00 60 1017.2
20260507101538 14 348 9.7 14.5 0.00 0.00 0.00 60 1017.2
20260507101435 14 340 9.7 14.5 0.00 0.00 0.00 62 1017.2
20260507101336 14 0 8.0 16.1 0.00 0.00 0.00 60 1017.3
20260507101235 15 0 6.4 17.7 0.00 0.00 0.00 61 1017.3
20260507101135 15 7 8.0 17.7 0.00 0.00 0.00 56 1017.2
20260507101035 15 4 6.4 17.7 0.00 0.00 0.00 59 1017.2
20260507100936 15 6 6.4 17.7 0.00 0.00 0.00 59 1017.2
20260507100835 15 1 6.4 17.7 0.00 0.00 0.00 60 1017.2
20260507100735 14 13 6.4 17.7 0.00 0.00 0.00 59 1017.2
20260507100634 14 1 6.4 17.7 0.00 0.00 0.00 60 1017.1
20260507100535 14 0 8.0 17.7 0.00 0.00 0.00 62 1017.1
20260507100435 14 16 8.0 17.7 0.00 0.00 0.00 63 1017.2
20260507100335 14 353 8.0 17.7 0.00 0.00 0.00 62 1017.1
20260507100235 14 344 8.0 16.1 0.00 0.00 0.00 61 1017.0
20260507100135 14 350 9.7 16.1 0.00 0.00 0.00 61 1017.1
20260507100035 14 351 8.0 16.1 0.00 0.00 0.00 60 1017.1
20260507095936 14 0 8.0 16.1 0.00 0.00 0.00 62 1017.0
20260507095835 14 25 9.7 16.1 0.00 0.00 0.00 61 1017.1
20260507095736 14 343 8.0 16.1 0.00 0.00 0.00 62 1017.1
20260507095635 14 312 6.4 11.3 0.00 0.00 0.00 61 1017.0
20260507095535 14 34 6.4 11.3 0.00 0.00 0.00 60 1017.0
20260507095435 14 345 6.4 11.3 0.00 0.00 0.00 60 1017.0
20260507095335 14 358 6.4 11.3 0.00 0.00 0.00 61 1017.1
20260507095235 14 0 8.0 11.3 0.00 0.00 0.00 60 1017.1
20260507095135 14 330 6.4 11.3 0.00 0.00 0.00 61 1017.1
20260507095035 14 344 4.8 16.1 0.00 0.00 0.00 62 1017.0
20260507094935 14 347 4.8 16.1 0.00 0.00 0.00 59 1017.0
20260507094835 14 0 6.4 16.1 0.00 0.00 0.00 61 1017.0
20260507094735 14 0 6.4 16.1 0.00 0.00 0.00 63 1017.0
20260507094635 14 3 4.8 16.1 0.00 0.00 0.00 63 1017.0
20260507094534 14 0 3.2 16.1 0.00 0.00 0.00 64 1017.0
20260507094436 14 358 3.2 16.1 0.00 0.00 0.00 63 1017.0
20260507094335 14 0 6.4 16.1 0.00 0.00 0.00 61 1017.0
20260507094235 14 0 8.0 16.1 0.00 0.00 0.00 62 1017.0
20260507094135 14 0 6.4 16.1 0.00 0.00 0.00 61 1017.2
20260507094035 14 0 4.8 11.3 0.00 0.00 0.00 62 1017.0
20260507093934 14 0 6.4 11.3 0.00 0.00 0.00 63 1017.0
20260507093840 14 0 8.0 11.3 0.00 0.00 0.00 63 1017.0
20260507093736 14 358 8.0 11.3 0.00 0.00 0.00 64 1017.0
20260507093637 14 0 6.4 11.3 0.00 0.00 0.00 64 1017.0
20260507093537 14 351 6.4 11.3 0.00 0.00 0.00 64 1017.0
20260507093437 14 326 6.4 11.3 0.00 0.00 0.00 64 1017.0
20260507093336 14 348 6.4 11.3 0.00 0.00 0.00 63 1017.0
20260507093236 14 0 8.0 11.3 0.00 0.00 0.00 64 1017.0
20260507093135 14 1 9.7 11.3 0.00 0.00 0.00 64 1016.9
20260507093035 14 0 6.4 11.3 0.00 0.00 0.00 65 1016.9
20260507092935 14 14 4.8 11.3 0.00 0.00 0.00 68 1017.0
20260507092836 14 14 4.8 11.3 0.00 0.00 0.00 67 1017.0
20260507092735 13 8 4.8 11.3 0.00 0.00 0.00 65 1016.9
20260507092635 13 0 6.4 11.3 0.00 0.00 0.00 65 1017.0
20260507092535 13 21 6.4 14.5 0.00 0.00 0.00 65 1017.0
20260507092434 13 0 8.0 14.5 0.00 0.00 0.00 65 1016.9
20260507092335 13 3 8.0 14.5 0.00 0.00 0.00 66 1016.9
20260507092235 13 331 8.0 14.5 0.00 0.00 0.00 65 1016.9
20260507092135 13 1 8.0 14.5 0.00 0.00 0.00 65 1016.9
20260507092035 13 334 8.0 14.5 0.00 0.00 0.00 64 1016.9
20260507091935 13 341 8.0 14.5 0.00 0.00 0.00 64 1016.9
20260507091836 13 340 8.0 14.5 0.00 0.00 0.00 66 1016.8
20260507091735 13 351 8.0 14.5 0.00 0.00 0.00 67 1016.8
20260507091635 14 3 6.4 14.5 0.00 0.00 0.00 69 1016.7
20260507091535 13 0 3.2 14.5 0.00 0.00 0.00 70 1016.8
20260507091437 13 310 3.2 14.5 0.00 0.00 0.00 68 1016.8
20260507091338 13 310 4.8 14.5 0.00 0.00 0.00 67 1016.8
20260507091238 13 312 6.4 14.5 0.00 0.00 0.00 68 1016.8
20260507091137 13 320 6.4 14.5 0.00 0.00 0.00 69 1016.9
20260507091035 13 21 4.8 14.5 0.00 0.00 0.00 69 1016.8
20260507090934 13 0 4.8 14.5 0.00 0.00 0.00 68 1016.8
20260507090835 13 333 6.4 14.5 0.00 0.00 0.00 68 1016.8
20260507090734 13 358 8.0 14.5 0.00 0.00 0.00 70 1016.8
20260507090634 13 0 8.0 11.3 0.00 0.00 0.00 70 1016.8
20260507090535 13 358 4.8 11.3 0.00 0.00 0.00 70 1016.8
20260507090435 13 344 4.8 11.3 0.00 0.00 0.00 69 1016.8
20260507090334 13 343 6.4 14.5 0.00 0.00 0.00 71 1016.8
20260507090235 13 338 3.2 16.1 0.00 0.00 0.00 71 1016.8
20260507090135 13 42 4.8 16.1 0.00 0.00 0.00 69 1016.8
20260507090035 13 42 6.4 16.1 0.00 0.00 0.00 70 1016.8
20260507085935 13 42 6.4 16.1 0.00 0.00 0.00 70 1016.8
20260507085835 13 3 8.0 16.1 0.00 0.00 0.00 70 1016.8
20260507085734 13 1 8.0 16.1 0.00 0.00 0.00 70 1016.9
20260507085636 13 323 8.0 16.1 0.00 0.00 0.00 69 1016.8
20260507085536 13 323 8.0 16.1 0.00 0.00 0.00 70 1016.8
20260507085436 13 338 9.7 16.1 0.00 0.00 0.00 70 1016.8
20260507085336 13 331 9.7 16.1 0.00 0.00 0.00 70 1016.9
20260507085236 13 330 6.4 14.5 0.00 0.00 0.00 69 1016.8
20260507085136 13 358 8.0 14.5 0.00 0.00 0.00 70 1016.8
20260507085037 13 0 8.0 14.5 0.00 0.00 0.00 70 1016.8
20260507084937 13 323 4.8 14.5 0.00 0.00 0.00 71 1016.7
20260507084837 13 350 4.8 14.5 0.00 0.00 0.00 71 1016.7
20260507084735 13 350 8.0 14.5 0.00 0.00 0.00 71 1016.8
20260507084635 13 0 8.0 14.5 0.00 0.00 0.00 71 1016.7
20260507084535 13 350 6.4 14.5 0.00 0.00 0.00 73 1016.7
20260507084435 13 326 6.4 14.5 0.00 0.00 0.00 73 1016.7
20260507084335 13 334 6.4 14.5 0.00 0.00 0.00 70 1016.7
20260507084235 13 336 9.7 14.5 0.00 0.00 0.00 71 1016.7
20260507084134 13 354 8.0 14.5 0.00 0.00 0.00 70 1016.7
20260507084035 13 337 8.0 14.5 0.00 0.00 0.00 70 1016.7
20260507083935 13 10 8.0 14.5 0.00 0.00 0.00 71 1016.7
20260507083835 13 0 4.8 11.3 0.00 0.00 0.00 71 1016.7
20260507083736 13 14 6.4 11.3 0.00 0.00 0.00 71 1016.8
20260507083635 13 0 8.0 11.3 0.00 0.00 0.00 71 1016.7
20260507083535 13 0 6.4 11.3 0.00 0.00 0.00 73 1016.6
20260507083437 13 355 6.4 11.3 0.00 0.00 0.00 72 1016.7
20260507083338 13 358 6.4 11.3 0.00 0.00 0.00 71 1016.7
20260507083235 13 0 4.8 11.3 0.00 0.00 0.00 72 1016.7
20260507083135 13 16 4.8 11.3 0.00 0.00 0.00 71 1016.7
20260507083034 13 16 4.8 11.3 0.00 0.00 0.00 71 1016.8
20260507082935 13 16 6.4 11.3 0.00 0.00 0.00 71 1016.8
20260507082835 13 10 8.0 11.3 0.00 0.00 0.00 71 1016.8
20260507082735 13 8 8.0 11.3 0.00 0.00 0.00 70 1016.8
20260507082635 13 1 6.4 9.7 0.00 0.00 0.00 71 1016.7
20260507082535 13 343 6.4 9.7 0.00 0.00 0.00 71 1016.6
20260507082435 13 0 6.4 9.7 0.00 0.00 0.00 70 1016.6
20260507082335 13 326 4.8 9.7 0.00 0.00 0.00 71 1016.7
20260507082234 13 0 4.8 9.7 0.00 0.00 0.00 71 1016.7
20260507082135 13 1 3.2 9.7 0.00 0.00 0.00 72 1016.7
20260507082035 13 1 4.8 9.7 0.00 0.00 0.00 73 1016.8
20260507081935 13 0 4.8 11.3 0.00 0.00 0.00 73 1016.8
20260507081835 13 31 4.8 11.3 0.00 0.00 0.00 74 1016.7
20260507081735 13 58 4.8 11.3 0.00 0.00 0.00 73 1016.7
20260507081637 13 58 6.4 11.3 0.00 0.00 0.00 73 1016.7
20260507081536 13 55 4.8 11.3 0.00 0.00 0.00 73 1016.7
20260507081436 13 28 3.2 11.3 0.00 0.00 0.00 73 1016.6
20260507081335 13 28 4.8 11.3 0.00 0.00 0.00 73 1016.6
20260507081235 13 27 6.4 11.3 0.00 0.00 0.00 72 1016.6
20260507081135 13 0 6.4 14.5 0.00 0.00 0.00 72 1016.6
20260507081035 13 0 6.4 14.5 0.00 0.00 0.00 73 1016.6
20260507080935 13 353 4.8 14.5 0.00 0.00 0.00 74 1016.6
20260507080836 12 0 3.2 14.5 0.00 0.00 0.00 74 1016.7
20260507080736 12 0 4.8 14.5 0.00 0.00 0.00 73 1016.6
20260507080635 12 0 6.4 14.5 0.00 0.00 0.00 73 1016.7
20260507080535 12 0 6.4 14.5 0.00 0.00 0.00 72 1016.7
20260507080435 12 334 6.4 14.5 0.00 0.00 0.00 72 1016.6
20260507080335 12 11 6.4 14.5 0.00 0.00 0.00 73 1016.7
20260507080235 12 34 8.0 14.5 0.00 0.00 0.00 73 1016.7
20260507080135 13 39 4.8 9.7 0.00 0.00 0.00 73 1016.6
20260507080036 13 28 3.2 11.3 0.00 0.00 0.00 73 1016.6
20260507075937 13 28 3.2 11.3 0.00 0.00 0.00 73 1016.6
20260507075837 13 28 4.8 11.3 0.00 0.00 0.00 74 1016.6
20260507075737 12 27 4.8 11.3 0.00 0.00 0.00 74 1016.6
20260507075638 12 0 4.8 11.3 0.00 0.00 0.00 73 1016.6
20260507075538 12 0 4.8 11.3 0.00 0.00 0.00 74 1016.6
20260507075436 12 0 3.2 11.3 0.00 0.00 0.00 75 1016.6
20260507075335 12 0 3.2 11.3 0.00 0.00 0.00 74 1016.6
20260507075234 12 1 6.4 11.3 0.00 0.00 0.00 74 1016.6
20260507075135 12 0 6.4 11.3 0.00 0.00 0.00 74 1016.5
20260507075035 12 341 4.8 11.3 0.00 0.00 0.00 74 1016.5
20260507074935 12 355 6.4 11.3 0.00 0.00 0.00 74 1016.6
20260507074834 12 355 6.4 11.3 0.00 0.00 0.00 75 1016.6
20260507074735 12 0 4.8 11.3 0.00 0.00 0.00 76 1016.5
20260507074635 12 44 3.2 11.3 0.00 0.00 0.00 75 1016.5
20260507074535 12 35 3.2 11.3 0.00 0.00 0.00 74 1016.5
20260507074435 12 358 4.8 11.3 0.00 0.00 0.00 74 1016.5
20260507074335 12 358 6.4 11.3 0.00 0.00 0.00 73 1016.5
20260507074235 12 358 6.4 11.3 0.00 0.00 0.00 74 1016.5
20260507074135 12 0 4.8 11.3 0.00 0.00 0.00 75 1016.5
20260507074037 12 28 4.8 11.3 0.00 0.00 0.00 75 1016.5
20260507073938 12 30 3.2 9.7 0.00 0.00 0.00 77 1016.5
20260507073835 12 30 3.2 9.7 0.00 0.00 0.00 77 1016.5
20260507073736 12 6 1.6 9.7 0.00 0.00 0.00 76 1016.5
20260507073635 12 6 3.2 9.7 0.00 0.00 0.00 77 1016.5
20260507073535 12 4 3.2 9.7 0.00 0.00 0.00 77 1016.6
20260507073435 12 6 4.8 9.7 0.00 0.00 0.00 76 1016.5
20260507073335 12 10 3.2 9.7 0.00 0.00 0.00 77 1016.5
20260507073236 12 32 3.2 9.7 0.00 0.00 0.00 76 1016.5
20260507073136 12 32 3.2 9.7 0.00 0.00 0.00 76 1016.4
20260507073035 12 32 4.8 9.7 0.00 0.00 0.00 76 1016.5
20260507072935 12 32 6.4 9.7 0.00 0.00 0.00 76 1016.6
20260507072835 12 3 4.8 9.7 0.00 0.00 0.00 76 1016.5
20260507072734 12 0 4.8 9.7 0.00 0.00 0.00 76 1016.5
20260507072634 12 0 4.8 9.7 0.00 0.00 0.00 76 1016.5
20260507072534 12 344 3.2 9.7 0.00 0.00 0.00 76 1016.5
20260507072435 12 47 3.2 9.7 0.00 0.00 0.00 77 1016.5
20260507072335 12 47 3.2 9.7 0.00 0.00 0.00 78 1016.6
20260507072235 12 45 3.2 9.7 0.00 0.00 0.00 78 1016.5
20260507072138 12 118 4.8 9.7 0.00 0.00 0.00 76 1016.5
20260507072037 12 102 4.8 9.7 0.00 0.00 0.00 77 1016.5
20260507071936 12 90 4.8 9.7 0.00 0.00 0.00 76 1016.5
20260507071836 12 92 6.4 9.7 0.00 0.00 0.00 75 1016.5
20260507071736 12 90 6.4 9.7 0.00 0.00 0.00 77 1016.5
20260507071635 12 116 4.8 9.7 0.00 0.00 0.00 79 1016.5
20260507071536 11 121 4.8 9.7 0.00 0.00 0.00 77 1016.5
20260507071434 12 90 6.4 9.7 0.00 0.00 0.00 78 1016.5
20260507071336 11 96 4.8 9.7 0.00 0.00 0.00 78 1016.4
20260507071236 11 0 6.4 9.7 0.00 0.00 0.00 78 1016.4
20260507071135 11 0 6.4 9.7 0.00 0.00 0.00 78 1016.4
20260507071034 11 34 6.4 14.5 0.00 0.00 0.00 79 1016.4
20260507070936 11 358 4.8 14.5 0.00 0.00 0.00 79 1016.4
20260507070834 11 44 3.2 14.5 0.00 0.00 0.00 80 1016.3
20260507070735 11 44 4.8 14.5 0.00 0.00 0.00 80 1016.4
20260507070635 11 44 6.4 14.5 0.00 0.00 0.00 80 1016.5
20260507070536 11 0 6.4 14.5 0.00 0.00 0.00 80 1016.4
20260507070435 11 8 4.8 14.5 0.00 0.00 0.00 80 1016.4
20260507070335 11 16 4.8 14.5 0.00 0.00 0.00 80 1016.4
20260507070236 11 45 4.8 14.5 0.00 0.00 0.00 80 1016.4
20260507070136 11 0 6.4 14.5 0.00 0.00 0.00 80 1016.4
20260507070037 11 357 8.0 11.3 0.00 0.00 0.00 80 1016.4
20260507065936 11 0 8.0 11.3 0.00 0.00 0.00 80 1016.4
20260507065834 11 3 6.4 11.3 0.00 0.00 0.00 80 1016.4
20260507065734 11 45 6.4 11.3 0.00 0.00 0.00 81 1016.4
20260507065633 11 21 6.4 11.3 0.00 0.00 0.00 81 1016.4
20260507065532 11 0 6.4 11.3 0.00 0.00 0.00 81 1016.4
20260507065430 11 0 6.4 11.3 0.00 0.00 0.00 81 1016.3
20260507065329 11 0 6.4 11.3 0.00 0.00 0.00 81 1016.5
20260507065229 11 14 6.4 11.3 0.00 0.00 0.00 81 1016.3
20260507065129 11 24 6.4 14.5 0.00 0.00 0.00 81 1016.4
20260507065029 11 27 6.4 14.5 0.00 0.00 0.00 81 1016.4
20260507064930 11 31 8.0 14.5 0.00 0.00 0.00 82 1016.4
20260507064828 11 17 6.4 14.5 0.00 0.00 0.00 82 1016.4
20260507064728 11 47 6.4 14.5 0.00 0.00 0.00 82 1016.4
20260507064628 11 59 6.4 14.5 0.00 0.00 0.00 82 1016.4
20260507064527 11 79 6.4 14.5 0.00 0.00 0.00 82 1016.4
20260507064426 11 39 4.8 14.5 0.00 0.00 0.00 83 1016.3
20260507064326 11 34 6.4 14.5 0.00 0.00 0.00 83 1016.4
20260507064227 11 34 6.4 14.5 0.00 0.00 0.00 83 1016.4
20260507064126 11 52 3.2 14.5 0.00 0.00 0.00 83 1016.4
20260507064026 11 58 3.2 14.5 0.00 0.00 0.00 83 1016.4
20260507063923 11 59 4.8 14.5 0.00 0.00 0.00 83 1016.4
20260507063822 11 59 3.2 14.5 0.00 0.00 0.00 84 1016.4
20260507063722 11 59 4.8 14.5 0.00 0.00 0.00 84 1016.4
20260507063622 11 59 6.4 14.5 0.00 0.00 0.00 84 1016.4
20260507063521 10 52 6.4 14.5 0.00 0.00 0.00 84 1016.4
20260507063421 10 55 6.4 14.5 0.00 0.00 0.00 84 1016.3
20260507063320 10 0 8.0 14.5 0.00 0.00 0.00 84 1016.3
20260507063222 10 14 8.0 14.5 0.00 0.00 0.00 83 1016.4
20260507063123 10 11 8.0 14.5 0.00 0.00 0.00 84 1016.3
20260507063020 10 66 8.0 14.5 0.00 0.00 0.00 84 1016.3
20260507062919 10 25 6.4 14.5 0.00 0.00 0.00 84 1016.4
20260507062817 10 11 6.4 14.5 0.00 0.00 0.00 84 1016.4
20260507062716 10 1 8.0 14.5 0.00 0.00 0.00 84 1016.3
20260507062616 10 21 8.0 14.5 0.00 0.00 0.00 84 1016.2
20260507062515 10 0 6.4 14.5 0.00 0.00 0.00 84 1016.2
20260507062414 10 0 8.0 14.5 0.00 0.00 0.00 84 1016.3
20260507062311 10 34 6.4 14.5 0.00 0.00 0.00 84 1016.2
20260507062212 10 58 4.8 14.5 0.00 0.00 0.00 85 1016.3
20260507062110 10 61 3.2 14.5 0.00 0.00 0.00 85 1016.3
20260507062011 10 61 4.8 14.5 0.00 0.00 0.00 85 1016.2
20260507061909 10 62 6.4 14.5 0.00 0.00 0.00 85 1016.3
20260507061810 10 357 4.8 14.5 0.00 0.00 0.00 86 1016.1
20260507061710 10 4 3.2 11.3 0.00 0.00 0.00 86 1016.2
20260507061609 10 4 4.8 11.3 0.00 0.00 0.00 86 1016.2
20260507061509 10 18 6.4 11.3 0.00 0.00 0.00 85 1016.1
20260507061407 10 353 8.0 11.3 0.00 0.00 0.00 86 1016.2
20260507061307 10 17 6.4 11.3 0.00 0.00 0.00 86 1016.2
20260507061208 10 4 4.8 11.3 0.00 0.00 0.00 86 1016.1
20260507061107 10 16 6.4 11.3 0.00 0.00 0.00 86 1016.1
20260507061007 10 18 6.4 11.3 0.00 0.00 0.00 86 1016.1
20260507060906 10 28 6.4 11.3 0.00 0.00 0.00 87 1016.1
20260507060810 10 0 6.4 11.3 0.00 0.00 0.00 87 1016.1
20260507060705 10 28 6.4 14.5 0.00 0.00 0.00 87 1016.0
20260507060606 10 0 6.4 14.5 0.00 0.00 0.00 87 1016.1
20260507060506 10 25 4.8 14.5 0.00 0.00 0.00 87 1016.0
20260507060405 10 3 3.2 14.5 0.00 0.00 0.00 87 1016.0
20260507060300 10 39 3.2 14.5 0.00 0.00 0.00 88 1016.0
20260507060200 10 39 3.2 14.5 0.00 0.00 0.00 88 1016.0
20260507060101 10 39 6.4 14.5 0.00 0.00 0.00 88 1016.0
20260507060001 10 39 6.4 14.5 0.00 0.00 0.00 88 1016.1
20260507055901 10 24 6.4 14.5 0.00 0.00 0.00 88 1016.0
20260507055800 10 28 4.8 14.5 0.00 0.00 0.00 88 1016.1
20260507055659 10 34 6.4 14.5 0.00 0.00 0.00 88 1016.1
20260507055559 10 34 8.0 14.5 0.00 0.00 0.00 88 1016.1
20260507055459 10 41 8.0 11.3 0.00 0.00 0.00 88 1016.1
20260507055358 10 1 4.8 11.3 0.00 0.00 0.00 88 1016.0
20260507055258 10 27 4.8 11.3 0.00 0.00 0.00 88 1016.0
20260507055157 10 27 6.4 11.3 0.00 0.00 0.00 88 1016.1
20260507055057 10 25 6.4 11.3 0.00 0.00 0.00 88 1016.0
20260507054957 10 37 6.4 11.3 0.00 0.00 0.00 89 1016.0
20260507054855 10 8 6.4 11.3 0.00 0.00 0.00 89 1016.0
20260507054756 10 17 6.4 11.3 0.00 0.00 0.00 89 1016.0
20260507054656 10 27 4.8 11.3 0.00 0.00 0.00 89 1016.0
20260507054558 10 48 4.8 11.3 0.00 0.00 0.00 89 1016.0
20260507054457 10 48 4.8 11.3 0.00 0.00 0.00 89 1016.1
20260507054355 10 25 4.8 8.0 0.00 0.00 0.00 89 1016.0
20260507054253 10 25 4.8 8.0 0.00 0.00 0.00 89 1016.0
20260507054151 10 25 4.8 8.0 0.00 0.00 0.00 90 1016.0
20260507054039 10 21 4.8 8.0 0.00 0.00 0.00 90 1016.1
20260507053939 10 21 3.2 8.0 0.00 0.00 0.00 90 1016.1
20260507053839 10 1 3.2 8.0 0.00 0.00 0.00 90 1016.0
20260507053738 9 0 3.2 8.0 0.00 0.00 0.00 90 1016.0
20260507053637 9 1 3.2 8.0 0.00 0.00 0.00 90 1016.1
20260507053536 9 8 4.8 8.0 0.00 0.00 0.00 90 1016.0
20260507053437 9 8 4.8 8.0 0.00 0.00 0.00 90 1016.1
20260507053337 9 11 3.2 8.0 0.00 0.00 0.00 91 1016.1
20260507053134 9 20 3.2 9.7 0.00 0.00 0.00 91 1016.1
20260507053034 9 21 3.2 9.7 0.00 0.00 0.00 91 1016.1
20260507052934 9 21 3.2 9.7 0.00 0.00 0.00 91 1016.0
20260507052834 9 21 3.2 9.7 0.00 0.00 0.00 91 1016.0
20260507052734 9 21 4.8 9.7 0.00 0.00 0.00 91 1016.0
20260507052635 9 31 4.8 9.7 0.00 0.00 0.00 91 1016.0
20260507052535 9 52 3.2 9.7 0.00 0.00 0.00 91 1016.0
20260507052434 9 52 4.8 9.7 0.00 0.00 0.00 92 1015.9
20260507052335 9 54 4.8 9.7 0.00 0.00 0.00 92 1015.9
20260507052234 9 55 4.8 9.7 0.00 0.00 0.00 92 1015.9
20260507052134 9 1 4.8 8.0 0.00 0.00 0.00 92 1015.9
20260507052035 9 1 3.2 8.0 0.00 0.00 0.00 92 1015.9
20260507051935 8 1 3.2 8.0 0.00 0.00 0.00 92 1015.9
20260507051834 8 1 3.2 8.0 0.00 0.00 0.00 92 1015.8
20260507051734 8 1 3.2 8.0 0.00 0.00 0.00 92 1015.9
20260507051633 8 1 3.2 8.0 0.00 0.00 0.00 92 1015.8
20260507051534 8 1 3.2 8.0 0.00 0.00 0.00 92 1015.8
20260507051434 8 0 3.2 8.0 0.00 0.00 0.00 92 1015.8
20260507051331 8 3 3.2 8.0 0.00 0.00 0.00 93 1015.8
20260507051229 8 1 3.2 8.0 0.00 0.00 0.00 93 1015.7
20260507051130 8 1 4.8 8.0 0.00 0.00 0.00 93 1015.7
20260507051030 8 1 4.8 8.0 0.00 0.00 0.00 93 1015.8
20260507050930 8 1 3.2 8.0 0.00 0.00 0.00 92 1015.7
20260507050829 8 1 4.8 8.0 0.00 0.00 0.00 92 1015.7
20260507050727 8 16 4.8 8.0 0.00 0.00 0.00 93 1015.8
20260507050626 8 16 4.8 8.0 0.00 0.00 0.00 93 1015.7
20260507050526 8 16 3.2 8.0 0.00 0.00 0.00 93 1015.8
20260507050435 8 16 3.2 8.0 0.00 0.00 0.00 93 1015.7
20260507050326 8 16 3.2 8.0 0.00 0.00 0.00 93 1015.7
20260507050225 8 16 3.2 8.0 0.00 0.00 0.00 93 1015.7
20260507050126 8 16 3.2 8.0 0.00 0.00 0.00 93 1015.7
20260507050024 8 16 3.2 8.0 0.00 0.00 0.00 93 1015.5
20260507045925 8 16 3.2 8.0 0.00 0.00 0.00 93 1015.7
20260507045824 8 17 3.2 8.0 0.00 0.00 0.00 93 1015.6
20260507045724 8 16 4.8 8.0 0.00 0.00 0.00 93 1015.6
20260507045623 8 16 4.8 8.0 0.00 0.00 0.00 93 1015.6
20260507045522 8 16 4.8 8.0 0.00 0.00 0.00 93 1015.6
20260507045423 8 16 3.2 8.0 0.00 0.00 0.00 93 1015.6
20260507045321 8 16 3.2 8.0 0.00 0.00 0.00 93 1015.6
20260507045222 8 24 3.2 8.0 0.00 0.00 0.00 93 1015.6
20260507045122 8 24 3.2 8.0 0.00 0.00 0.00 93 1015.6
20260507045022 8 24 4.8 8.0 0.00 0.00 0.00 93 1015.5
20260507044922 8 24 3.2 8.0 0.00 0.00 0.00 93 1015.6
20260507044820 8 11 1.6 8.0 0.00 0.00 0.00 93 1015.4
20260507044720 8 11 3.2 8.0 0.00 0.00 0.00 93 1015.5
20260507044619 8 11 3.2 8.0 0.00 0.00 0.00 93 1015.5
20260507044519 8 11 3.2 8.0 0.00 0.00 0.00 93 1015.5
20260507044420 8 11 1.6 8.0 0.00 0.00 0.00 93 1015.5
20260507044318 8 11 3.2 8.0 0.00 0.00 0.00 93 1015.5
20260507044220 8 11 6.4 8.0 0.00 0.00 0.00 93 1015.4
20260507044117 8 14 4.8 8.0 0.00 0.00 0.00 93 1015.5
20260507044017 8 17 3.2 8.0 0.00 0.00 0.00 93 1015.4
20260507043916 8 17 3.2 9.7 0.00 0.00 0.00 93 1015.4
20260507043817 8 17 3.2 9.7 0.00 0.00 0.00 93 1015.5
20260507043716 8 17 4.8 9.7 0.00 0.00 0.00 93 1015.4
20260507043616 8 17 4.8 9.7 0.00 0.00 0.00 93 1015.4
20260507043515 8 18 3.2 9.7 0.00 0.00 0.00 93 1015.4
20260507043418 8 20 3.2 9.7 0.00 0.00 0.00 93 1015.3
20260507043314 8 1 4.8 9.7 0.00 0.00 0.00 93 1015.4
20260507043212 8 1 4.8 9.7 0.00 0.00 0.00 93 1015.3
20260507043111 8 4 6.4 9.7 0.00 0.00 0.00 93 1015.4
20260507043011 8 13 4.8 9.7 0.00 0.00 0.00 93 1015.4
20260507042908 8 28 4.8 9.7 0.00 0.00 0.00 93 1015.4
20260507042808 8 17 4.8 11.3 0.00 0.00 0.00 93 1015.3
20260507042709 8 20 4.8 11.3 0.00 0.00 0.00 93 1015.3
20260507042609 8 10 3.2 11.3 0.00 0.00 0.00 93 1015.3
20260507042506 8 17 3.2 11.3 0.00 0.00 0.00 93 1015.3
20260507042406 8 17 4.8 11.3 0.00 0.00 0.00 93 1015.2
20260507042307 8 17 4.8 11.3 0.00 0.00 0.00 93 1015.3
20260507042204 8 17 4.8 11.3 0.00 0.00 0.00 93 1015.3
20260507042105 8 17 3.2 11.3 0.00 0.00 0.00 93 1015.3
20260507042002 8 17 4.8 11.3 0.00 0.00 0.00 93 1015.2
20260507041902 8 18 6.4 11.3 0.00 0.00 0.00 93 1015.2
20260507041801 8 0 4.8 8.0 0.00 0.00 0.00 93 1015.2
20260507041701 8 0 4.8 8.0 0.00 0.00 0.00 93 1015.3
20260507041601 8 10 3.2 8.0 0.00 0.00 0.00 93 1015.3
20260507041500 8 11 4.8 8.0 0.00 0.00 0.00 93 1015.3
20260507041402 8 11 4.8 8.0 0.00 0.00 0.00 93 1015.3
20260507041303 8 0 3.2 8.0 0.00 0.00 0.00 93 1015.3
20260507041201 8 0 3.2 8.0 0.00 0.00 0.00 93 1015.2
20260507041102 8 0 3.2 8.0 0.00 0.00 0.00 93 1015.2
20260507041000 8 0 4.8 8.0 0.00 0.00 0.00 93 1015.2
20260507040901 8 21 4.8 8.0 0.00 0.00 0.00 93 1015.2
20260507040800 8 21 3.2 8.0 0.00 0.00 0.00 93 1015.3
20260507040700 8 21 3.2 8.0 0.00 0.00 0.00 93 1015.2
20260507040600 8 28 3.2 8.0 0.00 0.00 0.00 93 1015.2
20260507040458 8 28 4.8 8.0 0.00 0.00 0.00 93 1015.2
20260507040403 8 28 4.8 8.0 0.00 0.00 0.00 93 1015.2
20260507040257 8 30 4.8 8.0 0.00 0.00 0.00 93 1015.2
20260507040158 8 30 3.2 8.0 0.00 0.00 0.00 93 1015.2
20260507040058 8 3 1.6 8.0 0.00 0.00 0.00 93 1015.2
20260507035959 8 3 3.2 8.0 0.00 0.00 0.00 93 1015.1
20260507035900 8 3 3.2 8.0 0.00 0.00 0.00 93 1015.2
20260507035759 8 3 3.2 8.0 0.00 0.00 0.00 93 1015.2
20260507035656 8 3 3.2 8.0 0.00 0.00 0.00 93 1015.2
20260507035555 8 3 4.8 8.0 0.00 0.00 0.00 93 1015.2
20260507035456 8 6 4.8 8.0 0.00 0.00 0.00 93 1015.1
20260507035354 8 6 4.8 6.4 0.00 0.00 0.00 93 1015.2
20260507035256 8 6 4.8 6.4 0.00 0.00 0.00 93 1015.1
20260507035154 8 7 3.2 6.4 0.00 0.00 0.00 92 1015.1
20260507035054 8 7 3.2 6.4 0.00 0.00 0.00 92 1015.2
20260507034953 8 7 3.2 6.4 0.00 0.00 0.00 92 1015.1
20260507034853 8 7 3.2 6.4 0.00 0.00 0.00 92 1015.2
20260507034754 8 7 1.6 6.4 0.00 0.00 0.00 93 1015.1
20260507034654 8 7 3.2 6.4 0.00 0.00 0.00 93 1015.1
20260507034551 8 7 3.2 6.4 0.00 0.00 0.00 92 1015.1
20260507034451 8 7 3.2 6.4 0.00 0.00 0.00 92 1015.1
20260507034349 8 7 3.2 6.4 0.00 0.00 0.00 92 1015.1
20260507034250 8 7 3.2 6.4 0.00 0.00 0.00 92 1015.1
20260507034151 8 7 3.2 6.4 0.00 0.00 0.00 92 1015.1
20260507034050 8 7 3.2 6.4 0.00 0.00 0.00 92 1015.0
20260507033946 8 7 3.2 6.4 0.00 0.00 0.00 92 1015.1
20260507033846 8 7 4.8 6.4 0.00 0.00 0.00 92 1015.0
20260507033743 8 7 4.8 6.4 0.00 0.00 0.00 92 1015.0
20260507033644 8 7 3.2 6.4 0.00 0.00 0.00 92 1015.0
20260507033543 8 6 3.2 6.4 0.00 0.00 0.00 92 1015.0
20260507033442 8 6 3.2 6.4 0.00 0.00 0.00 92 1014.9
20260507033346 8 6 3.2 6.4 0.00 0.00 0.00 92 1014.9
20260507033241 8 6 3.2 6.4 0.00 0.00 0.00 92 1015.0
20260507033141 8 6 3.2 6.4 0.00 0.00 0.00 92 1015.0
20260507033041 8 6 4.8 9.7 0.00 0.00 0.00 92 1014.9
20260507032939 8 6 3.2 9.7 0.00 0.00 0.00 92 1014.9
20260507032838 8 7 3.2 9.7 0.00 0.00 0.00 92 1014.9
20260507032737 8 7 3.2 9.7 0.00 0.00 0.00 92 1014.8
20260507032640 8 1 3.2 9.7 0.00 0.00 0.00 92 1014.9
20260507032538 8 1 3.2 9.7 0.00 0.00 0.00 92 1014.9
20260507032437 8 1 3.2 9.7 0.00 0.00 0.00 92 1015.0
20260507032337 8 0 3.2 9.7 0.00 0.00 0.00 92 1014.9
20260507032236 8 0 3.2 9.7 0.00 0.00 0.00 91 1014.9
20260507032137 8 1 3.2 9.7 0.00 0.00 0.00 91 1014.9
20260507032036 8 7 3.2 9.7 0.00 0.00 0.00 92 1014.8
20260507031937 8 8 3.2 9.7 0.00 0.00 0.00 92 1014.9
20260507031835 8 8 4.8 9.7 0.00 0.00 0.00 92 1014.9
20260507031735 8 8 4.8 9.7 0.00 0.00 0.00 92 1014.9
20260507031635 8 10 4.8 9.7 0.00 0.00 0.00 92 1014.8
20260507031535 8 11 6.4 9.7 0.00 0.00 0.00 92 1014.8
20260507031435 8 0 4.8 9.7 0.00 0.00 0.00 91 1014.8
20260507031335 8 1 4.8 9.7 0.00 0.00 0.00 92 1014.8
20260507031234 8 1 6.4 9.7 0.00 0.00 0.00 92 1014.8
20260507031134 8 1 6.4 9.7 0.00 0.00 0.00 92 1014.8
20260507031034 8 11 4.8 9.7 0.00 0.00 0.00 92 1014.8
20260507030934 8 17 4.8 9.7 0.00 0.00 0.00 91 1014.7
20260507030834 8 1 6.4 9.7 0.00 0.00 0.00 91 1014.7
20260507030734 8 4 4.8 9.7 0.00 0.00 0.00 91 1014.8
20260507030635 8 3 3.2 9.7 0.00 0.00 0.00 91 1014.8
20260507030534 8 3 4.8 9.7 0.00 0.00 0.00 91 1014.7
20260507030434 8 6 3.2 9.7 0.00 0.00 0.00 91 1014.7
20260507030335 8 6 4.8 9.7 0.00 0.00 0.00 91 1014.7
20260507030235 8 8 4.8 9.7 0.00 0.00 0.00 91 1014.7
20260507030138 8 7 4.8 9.7 0.00 0.00 0.00 91 1014.6
20260507030034 8 11 3.2 8.0 0.00 0.00 0.00 91 1014.7
20260507025935 8 11 3.2 8.0 0.00 0.00 0.00 91 1014.7
20260507025835 8 10 3.2 8.0 0.00 0.00 0.00 91 1014.6
20260507025734 8 11 4.8 8.0 0.00 0.00 0.00 91 1014.6
20260507025635 8 13 4.8 8.0 0.00 0.00 0.00 91 1014.7
20260507025534 8 14 4.8 8.0 0.00 0.00 0.00 91 1014.6
20260507025435 8 8 3.2 8.0 0.00 0.00 0.00 91 1014.6
20260507025334 8 8 3.2 9.7 0.00 0.00 0.00 91 1014.7
20260507025235 8 8 3.2 9.7 0.00 0.00 0.00 91 1014.7
20260507025135 8 8 4.8 9.7 0.00 0.00 0.00 91 1014.7
20260507025035 8 8 4.8 9.7 0.00 0.00 0.00 91 1014.7
20260507024935 8 16 4.8 9.7 0.00 0.00 0.00 91 1014.7
20260507024835 8 16 3.2 9.7 0.00 0.00 0.00 91 1014.7
20260507024735 8 16 3.2 9.7 0.00 0.00 0.00 90 1014.7
20260507024635 8 16 3.2 9.7 0.00 0.00 0.00 90 1014.7
20260507024534 8 16 3.2 9.7 0.00 0.00 0.00 90 1014.7
20260507024430 8 17 3.2 9.7 0.00 0.00 0.00 90 1014.7
20260507024329 8 8 3.2 9.7 0.00 0.00 0.00 90 1014.7
20260507024231 8 8 3.2 9.7 0.00 0.00 0.00 90 1014.7
20260507024130 8 8 3.2 9.7 0.00 0.00 0.00 90 1014.7
20260507024029 8 25 3.2 8.0 0.00 0.00 0.00 90 1014.7
20260507023930 8 25 3.2 8.0 0.00 0.00 0.00 90 1014.7
20260507023831 8 27 3.2 9.7 0.00 0.00 0.00 90 1014.7
20260507023730 8 27 4.8 9.7 0.00 0.00 0.00 90 1014.6
20260507023630 8 27 4.8 9.7 0.00 0.00 0.00 90 1014.7
20260507023528 8 42 3.2 9.7 0.00 0.00 0.00 90 1014.7
20260507023427 8 42 3.2 9.7 0.00 0.00 0.00 90 1014.8
20260507023327 8 0 4.8 9.7 0.00 0.00 0.00 90 1014.7
20260507023226 8 0 4.8 9.7 0.00 0.00 0.00 89 1014.6
20260507023123 8 6 3.2 9.7 0.00 0.00 0.00 90 1014.7
20260507023025 8 4 4.8 9.7 0.00 0.00 0.00 89 1014.7
20260507022923 8 0 6.4 9.7 0.00 0.00 0.00 89 1014.7
20260507022822 8 0 6.4 9.7 0.00 0.00 0.00 89 1014.6
20260507022723 8 0 6.4 9.7 0.00 0.00 0.00 89 1014.6
20260507022622 8 0 4.8 8.0 0.00 0.00 0.00 89 1014.6
20260507022522 8 0 3.2 8.0 0.00 0.00 0.00 89 1014.6
20260507022422 8 0 3.2 8.0 0.00 0.00 0.00 89 1014.6
20260507022321 8 1 4.8 8.0 0.00 0.00 0.00 89 1014.6
20260507022220 8 20 4.8 8.0 0.00 0.00 0.00 89 1014.7
20260507022121 8 16 3.2 8.0 0.00 0.00 0.00 89 1014.6
20260507022018 9 16 4.8 8.0 0.00 0.00 0.00 89 1014.6
20260507021917 9 17 4.8 8.0 0.00 0.00 0.00 89 1014.6
20260507021816 9 18 3.2 8.0 0.00 0.00 0.00 88 1014.6
20260507021714 9 18 4.8 8.0 0.00 0.00 0.00 88 1014.6
20260507021614 9 18 3.2 8.0 0.00 0.00 0.00 88 1014.7
20260507021513 9 23 3.2 8.0 0.00 0.00 0.00 88 1014.6
20260507021413 9 23 4.8 8.0 0.00 0.00 0.00 88 1014.6
20260507021314 9 10 4.8 9.7 0.00 0.00 0.00 88 1014.6
20260507021212 9 1 4.8 9.7 0.00 0.00 0.00 88 1014.6
20260507021111 9 1 4.8 9.7 0.00 0.00 0.00 88 1014.6
20260507021011 9 0 3.2 9.7 0.00 0.00 0.00 88 1014.6
20260507020910 9 7 3.2 9.7 0.00 0.00 0.00 88 1014.5
20260507020811 9 7 3.2 9.7 0.00 0.00 0.00 88 1014.5
20260507020710 9 7 3.2 9.7 0.00 0.00 0.00 88 1014.5
20260507020610 9 7 3.2 9.7 0.00 0.00 0.00 88 1014.5
20260507020510 9 7 6.4 9.7 0.00 0.00 0.00 88 1014.5
20260507020406 9 7 6.4 9.7 0.00 0.00 0.00 87 1014.5
20260507020302 9 3 4.8 9.7 0.00 0.00 0.00 87 1014.4
20260507020203 9 0 4.8 9.7 0.00 0.00 0.00 87 1014.5
20260507020005 9 35 3.2 9.7 0.00 0.00 0.00 87 1014.5
20260507015904 9 37 3.2 9.7 0.00 0.00 0.00 87 1014.4
20260507015803 9 37 4.8 9.7 0.00 0.00 0.00 87 1014.5
20260507015703 9 37 4.8 9.7 0.00 0.00 0.00 87 1014.5
20260507015602 9 37 4.8 9.7 0.00 0.00 0.00 87 1014.5
20260507015500 9 17 4.8 9.7 0.00 0.00 0.00 87 1014.4
20260507015401 9 17 4.8 9.7 0.00 0.00 0.00 87 1014.4
20260507015301 9 20 4.8 9.7 0.00 0.00 0.00 87 1014.4
20260507015202 9 0 4.8 9.7 0.00 0.00 0.00 87 1014.3
20260507015101 9 0 4.8 9.7 0.00 0.00 0.00 86 1014.4
20260507015003 9 0 4.8 9.7 0.00 0.00 0.00 86 1014.4
20260507014901 9 0 4.8 9.7 0.00 0.00 0.00 86 1014.5
20260507014802 9 8 3.2 8.0 0.00 0.00 0.00 86 1014.4
20260507014701 9 11 4.8 8.0 0.00 0.00 0.00 86 1014.4
20260507014559 9 11 4.8 8.0 0.00 0.00 0.00 86 1014.4
20260507014459 9 11 6.4 8.0 0.00 0.00 0.00 86 1014.4
20260507014359 9 8 4.8 8.0 0.00 0.00 0.00 86 1014.4
20260507014300 9 1 4.8 8.0 0.00 0.00 0.00 86 1014.4
20260507014158 9 14 4.8 8.0 0.00 0.00 0.00 86 1014.5
20260507014057 9 4 4.8 8.0 0.00 0.00 0.00 86 1014.4
20260507013956 9 1 6.4 8.0 0.00 0.00 0.00 86 1014.4
20260507013856 9 3 6.4 8.0 0.00 0.00 0.00 85 1014.4
20260507013757 9 0 4.8 8.0 0.00 0.00 0.00 85 1014.5
20260507013659 9 0 6.4 8.0 0.00 0.00 0.00 85 1014.4
20260507013558 9 0 6.4 11.3 0.00 0.00 0.00 85 1014.4
20260507013455 9 4 4.8 11.3 0.00 0.00 0.00 85 1014.5
20260507013356 9 11 4.8 11.3 0.00 0.00 0.00 85 1014.3
20260507013255 9 11 4.8 11.3 0.00 0.00 0.00 85 1014.3
20260507013156 9 16 4.8 11.3 0.00 0.00 0.00 85 1014.4
20260507013054 9 16 4.8 11.3 0.00 0.00 0.00 85 1014.4
20260507012953 9 16 4.8 11.3 0.00 0.00 0.00 85 1014.4
20260507012852 9 17 4.8 11.3 0.00 0.00 0.00 84 1014.4
20260507012752 10 10 6.4 11.3 0.00 0.00 0.00 84 1014.4
20260507012653 10 10 6.4 11.3 0.00 0.00 0.00 84 1014.4
20260507012551 10 17 4.8 11.3 0.00 0.00 0.00 84 1014.4
20260507012451 10 18 6.4 11.3 0.00 0.00 0.00 84 1014.4
20260507012350 10 8 6.4 11.3 0.00 0.00 0.00 84 1014.5
20260507012250 10 7 6.4 14.5 0.00 0.00 0.00 84 1014.4
20260507012151 10 0 4.8 14.5 0.00 0.00 0.00 84 1014.5
20260507012050 10 354 3.2 14.5 0.00 0.00 0.00 84 1014.4
20260507011949 10 354 4.8 14.5 0.00 0.00 0.00 84 1014.3
20260507011849 10 354 6.4 14.5 0.00 0.00 0.00 84 1014.4
20260507011752 10 0 6.4 14.5 0.00 0.00 0.00 84 1014.4
20260507011652 10 0 4.8 14.5 0.00 0.00 0.00 84 1014.4
20260507011550 10 1 4.8 14.5 0.00 0.00 0.00 84 1014.4
20260507011447 10 1 6.4 14.5 0.00 0.00 0.00 84 1014.3
20260507011347 10 27 6.4 14.5 0.00 0.00 0.00 84 1014.3
20260507011246 10 10 6.4 11.3 0.00 0.00 0.00 84 1014.3
20260507011146 10 1 6.4 11.3 0.00 0.00 0.00 83 1014.3
20260507011046 10 1 6.4 11.3 0.00 0.00 0.00 83 1014.3
20260507010946 10 1 6.4 11.3 0.00 0.00 0.00 83 1014.2
20260507010845 10 0 4.8 11.3 0.00 0.00 0.00 83 1014.2
20260507010745 10 0 3.2 9.7 0.00 0.00 0.00 83 1014.2
20260507010645 10 0 4.8 9.7 0.00 0.00 0.00 83 1014.2
20260507010544 10 10 4.8 9.7 0.00 0.00 0.00 83 1014.3
20260507010445 10 11 4.8 9.7 0.00 0.00 0.00 83 1014.3
20260507010343 10 10 4.8 9.7 0.00 0.00 0.00 83 1014.3
20260507010243 10 13 4.8 9.7 0.00 0.00 0.00 83 1014.3
20260507010143 10 18 4.8 9.7 0.00 0.00 0.00 83 1014.3
20260507010043 10 38 6.4 9.7 0.00 0.00 0.00 83 1014.4
20260507005942 10 0 6.4 9.7 0.00 0.00 0.00 83 1014.3
20260507005838 10 18 6.4 9.7 0.00 0.00 0.00 83 1014.3
20260507005739 10 24 4.8 9.7 0.00 0.00 0.00 83 1014.3
20260507005638 10 13 4.8 9.7 0.00 0.00 0.00 83 1014.2
20260507005538 10 13 4.8 9.7 0.00 0.00 0.00 83 1014.3
20260507005437 10 1 3.2 9.7 0.00 0.00 0.00 82 1014.4
20260507005339 10 4 4.8 9.7 0.00 0.00 0.00 82 1014.3
20260507005238 10 4 4.8 9.7 0.00 0.00 0.00 82 1014.3
20260507005136 10 0 4.8 9.7 0.00 0.00 0.00 82 1014.3
20260507005037 10 7 4.8 9.7 0.00 0.00 0.00 82 1014.3
20260507004936 10 0 4.8 14.5 0.00 0.00 0.00 82 1014.3
20260507004834 10 0 6.4 14.5 0.00 0.00 0.00 82 1014.3
20260507004734 10 357 4.8 14.5 0.00 0.00 0.00 82 1014.2
20260507004634 10 0 3.2 14.5 0.00 0.00 0.00 82 1014.3
20260507004534 10 357 4.8 14.5 0.00 0.00 0.00 82 1014.2
20260507004434 10 357 4.8 14.5 0.00 0.00 0.00 82 1014.2
20260507004334 10 13 4.8 14.5 0.00 0.00 0.00 82 1014.3
20260507004234 10 10 4.8 14.5 0.00 0.00 0.00 82 1014.3
20260507004134 10 0 6.4 14.5 0.00 0.00 0.00 82 1014.3
20260507004035 10 1 6.4 14.5 0.00 0.00 0.00 82 1014.2
20260507003934 10 6 4.8 14.5 0.00 0.00 0.00 82 1014.2
20260507003834 10 0 6.4 14.5 0.00 0.00 0.00 81 1014.2
20260507003735 10 7 8.0 14.5 0.00 0.00 0.00 81 1014.2
20260507003634 10 0 6.4 14.5 0.00 0.00 0.00 81 1014.2
20260507003534 10 350 6.4 14.5 0.00 0.00 0.00 81 1014.2
20260507003434 10 35 6.4 14.5 0.00 0.00 0.00 81 1014.2
20260507003333 10 16 6.4 14.5 0.00 0.00 0.00 81 1014.2
20260507003234 10 3 6.4 14.5 0.00 0.00 0.00 81 1014.2
20260507003135 10 62 6.4 14.5 0.00 0.00 0.00 81 1014.1
20260507003036 10 0 6.4 14.5 0.00 0.00 0.00 80 1014.2
20260507002937 10 344 4.8 11.3 0.00 0.00 0.00 80 1014.2
20260507002835 10 7 3.2 11.3 0.00 0.00 0.00 80 1014.2
20260507002734 10 3 4.8 11.3 0.00 0.00 0.00 80 1014.2
20260507002635 10 0 6.4 11.3 0.00 0.00 0.00 80 1014.2
20260507002535 10 35 6.4 11.3 0.00 0.00 0.00 80 1014.2
20260507002434 10 344 8.0 11.3 0.00 0.00 0.00 80 1014.2
20260507002335 10 0 8.0 11.3 0.00 0.00 0.00 79 1014.2
20260507002234 10 17 8.0 14.5 0.00 0.00 0.00 79 1014.2
20260507002133 10 357 6.4 19.3 0.00 0.00 0.00 79 1014.2
20260507002034 10 6 4.8 19.3 0.00 0.00 0.00 79 1014.2
20260507001934 10 21 3.2 19.3 0.00 0.00 0.00 79 1014.1
20260507001836 10 44 3.2 19.3 0.00 0.00 0.00 79 1014.2
20260507001735 10 45 4.8 19.3 0.00 0.00 0.00 79 1014.2
20260507001634 10 0 4.8 19.3 0.00 0.00 0.00 79 1014.2
20260507001534 10 0 6.4 19.3 0.00 0.00 0.00 78 1014.2
20260507001436 10 6 8.0 19.3 0.00 0.00 0.00 78 1014.2
20260507001336 11 30 9.7 19.3 0.00 0.00 0.00 78 1014.2
20260507001234 11 0 8.0 19.3 0.00 0.00 0.00 78 1014.1
20260507001134 11 21 8.0 16.1 0.00 0.00 0.00 78 1014.2
20260507001034 11 0 8.0 16.1 0.00 0.00 0.00 78 1014.2
20260507000934 11 0 9.7 16.1 0.00 0.00 0.00 78 1014.2
20260507000835 11 6 9.7 16.1 0.00 0.00 0.00 78 1014.1
20260507000734 11 337 8.0 16.1 0.00 0.00 0.00 78 1014.1
20260507000635 11 350 6.4 16.1 0.00 0.00 0.00 77 1014.1
20260507000535 11 11 8.0 16.1 0.00 0.00 0.00 77 1014.1
20260507000435 11 17 8.0 16.1 0.00 0.00 0.00 77 1014.1
20260507000336 11 348 8.0 16.1 0.00 0.00 0.00 77 1014.1
20260507000235 11 14 8.0 16.1 0.00 0.00 0.00 77 1014.1
20260507000137 11 357 6.4 16.1 0.00 0.00 0.00 77 1014.1
20260507000034 11 56 6.4 16.1 0.00 0.00 0.00 77 1014.1
20260506235934 11 24 8.0 16.1 0.00 0.00 0.00 77 1014.1
20260506235834 11 13 8.0 16.1 0.00 0.00 0.00 76 1014.1
20260506235734 11 355 6.4 16.1 0.00 0.00 0.00 76 1014.0
20260506235633 11 38 6.4 16.1 0.00 0.00 0.00 76 1014.1
20260506235533 11 6 6.4 16.1 0.00 0.00 0.00 76 1014.1
20260506235434 11 21 9.7 16.1 0.00 0.00 0.00 76 1014.1
20260506235334 11 11 8.0 16.1 0.00 0.00 0.00 76 1014.1
20260506235235 11 1 6.4 14.5 0.00 0.00 0.00 76 1014.1
20260506235133 11 0 6.4 14.5 0.00 0.00 0.00 76 1014.1
20260506235034 11 0 6.4 14.5 0.00 0.00 0.00 76 1014.1
20260506234934 11 7 8.0 14.5 0.00 0.00 0.00 75 1014.0
20260506234833 11 0 9.7 14.5 0.00 0.00 0.00 75 1014.0
20260506234734 11 16 8.0 14.5 0.00 0.00 0.00 75 1014.1
20260506234634 11 0 6.4 16.1 0.00 0.00 0.00 75 1014.1
20260506234535 11 341 6.4 16.1 0.00 0.00 0.00 75 1014.0
20260506234434 11 345 6.4 16.1 0.00 0.00 0.00 74 1014.0
20260506234334 11 347 6.4 16.1 0.00 0.00 0.00 74 1014.0
20260506234234 11 0 6.4 16.1 0.00 0.00 0.00 74 1014.0
20260506234136 11 0 6.4 16.1 0.00 0.00 0.00 74 1014.0
20260506234037 11 0 6.4 16.1 0.00 0.00 0.00 73 1014.0
20260506233935 11 357 6.4 16.1 0.00 0.00 0.00 73 1014.0
20260506233834 11 3 8.0 16.1 0.00 0.00 0.00 73 1013.9
20260506233734 11 0 8.0 16.1 0.00 0.00 0.00 73 1014.0
20260506233636 11 0 8.0 14.5 0.00 0.00 0.00 73 1013.9
20260506233534 11 16 8.0 14.5 0.00 0.00 0.00 73 1013.9
20260506233434 11 24 6.4 14.5 0.00 0.00 0.00 73 1013.9
20260506233334 11 34 4.8 14.5 0.00 0.00 0.00 73 1013.9
20260506233234 11 10 3.2 11.3 0.00 0.00 0.00 73 1013.9
20260506233134 11 10 4.8 11.3 0.00 0.00 0.00 73 1013.8
20260506233034 11 7 6.4 11.3 0.00 0.00 0.00 73 1013.8
20260506232934 11 4 3.2 11.3 0.00 0.00 0.00 73 1013.8
20260506232834 11 20 3.2 11.3 0.00 0.00 0.00 73 1013.8
20260506232733 11 20 3.2 11.3 0.00 0.00 0.00 73 1013.8
20260506232634 11 1 4.8 11.3 0.00 0.00 0.00 73 1013.8
20260506232534 11 1 4.8 11.3 0.00 0.00 0.00 72 1013.8
20260506232434 11 51 3.2 11.3 0.00 0.00 0.00 72 1013.8
20260506232334 11 51 6.4 11.3 0.00 0.00 0.00 72 1013.8
20260506232236 11 54 6.4 11.3 0.00 0.00 0.00 72 1013.8
20260506232134 11 28 6.4 11.3 0.00 0.00 0.00 72 1013.8
20260506232034 11 37 6.4 11.3 0.00 0.00 0.00 72 1013.8
20260506231935 11 0 4.8 11.3 0.00 0.00 0.00 72 1013.8
20260506231834 11 14 6.4 11.3 0.00 0.00 0.00 72 1013.8
20260506231736 11 18 6.4 11.3 0.00 0.00 0.00 72 1013.8
20260506231635 11 14 6.4 11.3 0.00 0.00 0.00 72 1013.8
20260506231535 11 34 6.4 11.3 0.00 0.00 0.00 72 1013.7
20260506231433 11 324 6.4 11.3 0.00 0.00 0.00 73 1013.8
20260506231335 11 21 6.4 11.3 0.00 0.00 0.00 73 1013.8
20260506231235 11 7 8.0 11.3 0.00 0.00 0.00 73 1013.8
20260506231133 11 0 6.4 11.3 0.00 0.00 0.00 73 1013.8
20260506231034 11 24 4.8 11.3 0.00 0.00 0.00 73 1013.8
20260506230934 11 1 4.8 11.3 0.00 0.00 0.00 74 1013.7
20260506230834 11 38 6.4 11.3 0.00 0.00 0.00 74 1013.7
20260506230734 11 3 6.4 11.3 0.00 0.00 0.00 74 1013.7
20260506230636 11 320 4.8 11.3 0.00 0.00 0.00 74 1013.7
20260506230537 11 4 6.4 11.3 0.00 0.00 0.00 74 1013.7
20260506230434 11 42 6.4 11.3 0.00 0.00 0.00 75 1013.8
20260506230335 11 44 4.8 11.3 0.00 0.00 0.00 75 1013.8
20260506230233 11 16 4.8 11.3 0.00 0.00 0.00 75 1013.7
20260506230135 11 4 4.8 11.3 0.00 0.00 0.00 75 1013.6
20260506230034 11 0 6.4 11.3 0.00 0.00 0.00 75 1013.6
20260506225934 11 351 6.4 11.3 0.00 0.00 0.00 76 1013.6
20260506225834 11 351 6.4 11.3 0.00 0.00 0.00 76 1013.6
20260506225735 11 10 4.8 8.0 0.00 0.00 0.00 76 1013.6
20260506225633 11 11 3.2 6.4 0.00 0.00 0.00 76 1013.6
20260506225534 11 13 3.2 6.4 0.00 0.00 0.00 76 1013.6
20260506225433 11 13 3.2 6.4 0.00 0.00 0.00 76 1013.6
20260506225334 11 13 3.2 6.4 0.00 0.00 0.00 76 1013.6
20260506225234 11 13 3.2 4.8 0.00 0.00 0.00 76 1013.6
20260506225134 11 13 1.6 4.8 0.00 0.00 0.00 76 1013.6
20260506225034 11 13 1.6 4.8 0.00 0.00 0.00 76 1013.6
20260506224934 11 13 1.6 4.8 0.00 0.00 0.00 76 1013.7
20260506224833 11 13 1.6 6.4 0.00 0.00 0.00 76 1013.7
20260506224734 11 13 3.2 6.4 0.00 0.00 0.00 76 1013.6
20260506224635 11 13 1.6 9.7 0.00 0.00 0.00 76 1013.6
20260506224535 12 13 1.6 9.7 0.00 0.00 0.00 76 1013.6
20260506224436 12 13 1.6 9.7 0.00 0.00 0.00 76 1013.6
20260506224336 12 13 1.6 9.7 0.00 0.00 0.00 76 1013.7
20260506224236 12 13 1.6 9.7 0.00 0.00 0.00 76 1013.6
20260506224134 12 13 1.6 9.7 0.00 0.00 0.00 76 1013.6
20260506224036 12 13 3.2 9.7 0.00 0.00 0.00 76 1013.5
20260506223934 12 13 4.8 9.7 0.00 0.00 0.00 76 1013.6
20260506223834 12 13 6.4 9.7 0.00 0.00 0.00 76 1013.6
20260506223735 12 11 6.4 11.3 0.00 0.00 0.00 76 1013.6
20260506223634 12 30 4.8 11.3 0.00 0.00 0.00 76 1013.6
20260506223535 12 30 3.2 11.3 0.00 0.00 0.00 75 1013.5
20260506223434 12 30 3.2 11.3 0.00 0.00 0.00 75 1013.5
20260506223334 12 30 3.2 11.3 0.00 0.00 0.00 75 1013.6
20260506223234 12 31 6.4 11.3 0.00 0.00 0.00 75 1013.5
20260506223134 12 31 4.8 11.3 0.00 0.00 0.00 75 1013.5
20260506223034 12 28 4.8 11.3 0.00 0.00 0.00 75 1013.5
20260506222934 12 0 6.4 11.3 0.00 0.00 0.00 75 1013.5
20260506222834 12 1 6.4 11.3 0.00 0.00 0.00 76 1013.6
20260506222734 12 0 3.2 11.3 0.00 0.00 0.00 76 1013.6
20260506222638 12 0 4.8 11.3 0.00 0.00 0.00 76 1013.4
20260506222535 12 0 6.4 11.3 0.00 0.00 0.00 76 1013.5
20260506222435 12 11 6.4 11.3 0.00 0.00 0.00 76 1013.5
20260506222335 12 24 6.4 11.3 0.00 0.00 0.00 76 1013.5
20260506222234 12 35 6.4 11.3 0.00 0.00 0.00 76 1013.5
20260506222134 12 7 4.8 9.7 0.00 0.00 0.00 76 1013.5
20260506222034 12 4 4.8 9.7 0.00 0.00 0.00 76 1013.5
20260506221934 12 4 3.2 9.7 0.00 0.00 0.00 76 1013.5
20260506221835 12 11 3.2 9.7 0.00 0.00 0.00 76 1013.4
20260506221734 12 11 4.8 9.7 0.00 0.00 0.00 76 1013.4
20260506221634 12 0 6.4 11.3 0.00 0.00 0.00 76 1013.5
20260506221534 12 17 6.4 11.3 0.00 0.00 0.00 77 1013.4
20260506221434 12 341 8.0 11.3 0.00 0.00 0.00 77 1013.4
20260506221334 12 3 6.4 11.3 0.00 0.00 0.00 77 1013.4
20260506221234 12 21 4.8 14.5 0.00 0.00 0.00 77 1013.4
20260506221134 12 31 4.8 14.5 0.00 0.00 0.00 77 1013.4
20260506221036 12 6 4.8 14.5 0.00 0.00 0.00 77 1013.4
20260506220936 12 23 6.4 14.5 0.00 0.00 0.00 77 1013.4
20260506220836 12 353 6.4 14.5 0.00 0.00 0.00 77 1013.4
20260506220736 12 353 6.4 14.5 0.00 0.00 0.00 78 1013.4
20260506220635 12 1 6.4 14.5 0.00 0.00 0.00 78 1013.3
20260506220536 12 351 6.4 14.5 0.00 0.00 0.00 78 1013.3
20260506220434 12 13 8.0 14.5 0.00 0.00 0.00 78 1013.3
20260506220334 12 347 6.4 14.5 0.00 0.00 0.00 78 1013.3
20260506220234 12 337 6.4 14.5 0.00 0.00 0.00 78 1013.3
20260506220134 12 0 4.8 14.5 0.00 0.00 0.00 78 1013.3
20260506220034 12 357 6.4 14.5 0.00 0.00 0.00 78 1013.3
20260506215935 12 0 6.4 14.5 0.00 0.00 0.00 78 1013.3
20260506215833 12 0 6.4 14.5 0.00 0.00 0.00 78 1013.3
20260506215734 12 1 6.4 14.5 0.00 0.00 0.00 78 1013.4
20260506215633 12 7 8.0 16.1 0.00 0.00 0.00 78 1013.4
20260506215535 12 0 9.7 16.1 0.00 0.00 0.00 78 1013.3
20260506215434 12 4 9.7 16.1 0.00 0.00 0.00 78 1013.2
20260506215334 12 11 8.0 16.1 0.00 0.00 0.00 78 1013.2
20260506215235 12 0 8.0 16.1 0.00 0.00 0.00 79 1013.4
20260506215135 12 353 6.4 16.1 0.00 0.00 0.00 79 1013.3
20260506215035 12 0 6.4 16.1 0.00 0.00 0.00 79 1013.3
20260506214936 12 337 8.0 16.1 0.00 0.00 0.00 79 1013.3
20260506214837 12 6 8.0 16.1 0.00 0.00 0.00 79 1013.3
20260506214736 12 7 8.0 16.1 0.00 0.00 0.00 79 1013.4
20260506214636 12 1 8.0 11.3 0.00 0.00 0.00 79 1013.3
20260506214537 12 18 6.4 11.3 0.00 0.00 0.00 79 1013.3
20260506214435 12 0 6.4 11.3 0.00 0.00 0.00 79 1013.2
20260506214334 12 0 6.4 14.5 0.00 0.00 0.00 79 1013.3
20260506214234 12 357 6.4 14.5 0.00 0.00 0.00 79 1013.3
20260506214134 12 0 6.4 14.5 0.00 0.00 0.00 79 1013.3
20260506214034 12 0 6.4 14.5 0.00 0.00 0.00 79 1013.3
20260506213934 12 0 8.0 14.5 0.00 0.00 0.00 79 1013.2
20260506213834 12 345 6.4 14.5 0.00 0.00 0.00 78 1013.3
20260506213735 12 0 4.8 14.5 0.00 0.00 0.00 78 1013.3
20260506213633 12 0 6.4 14.5 0.00 0.00 0.00 79 1013.3
20260506213534 12 0 8.0 14.5 0.00 0.00 0.00 79 1013.3
20260506213434 12 0 8.0 14.5 0.00 0.00 0.00 79 1013.2
20260506213334 12 344 8.0 14.5 0.00 0.00 0.00 79 1013.2
20260506213234 12 3 6.4 14.5 0.00 0.00 0.00 78 1013.2
20260506213134 12 0 6.4 14.5 0.00 0.00 0.00 78 1013.2
20260506213034 12 0 8.0 14.5 0.00 0.00 0.00 78 1013.2
20260506212936 12 10 8.0 14.5 0.00 0.00 0.00 78 1013.2
20260506212839 12 14 6.4 16.1 0.00 0.00 0.00 78 1013.2
20260506212736 12 0 6.4 16.1 0.00 0.00 0.00 78 1013.2
20260506212636 12 355 8.0 16.1 0.00 0.00 0.00 78 1013.2
20260506212537 12 350 8.0 16.1 0.00 0.00 0.00 78 1013.2
20260506212436 12 0 8.0 16.1 0.00 0.00 0.00 79 1013.2
20260506212335 12 354 6.4 16.1 0.00 0.00 0.00 79 1013.2
20260506212235 12 0 8.0 16.1 0.00 0.00 0.00 79 1013.1
20260506212135 12 6 8.0 16.1 0.00 0.00 0.00 79 1013.1
20260506212036 12 24 9.7 16.1 0.00 0.00 0.00 79 1013.2
20260506211934 12 0 8.0 16.1 0.00 0.00 0.00 79 1013.2
20260506211834 12 6 6.4 14.5 0.00 0.00 0.00 79 1013.1
20260506211734 12 13 6.4 14.5 0.00 0.00 0.00 79 1013.1
20260506211635 12 7 6.4 14.5 0.00 0.00 0.00 79 1013.1
20260506211535 12 35 6.4 16.1 0.00 0.00 0.00 78 1013.2
20260506211434 12 1 6.4 16.1 0.00 0.00 0.00 78 1013.2
20260506211334 12 337 6.4 16.1 0.00 0.00 0.00 78 1013.1
20260506211234 12 6 8.0 16.1 0.00 0.00 0.00 78 1013.1
20260506211133 12 0 8.0 16.1 0.00 0.00 0.00 78 1013.0
20260506211034 12 0 8.0 16.1 0.00 0.00 0.00 78 1013.1
20260506210934 12 357 6.4 16.1 0.00 0.00 0.00 78 1013.1
20260506210835 12 3 6.4 16.1 0.00 0.00 0.00 79 1013.1
20260506210735 12 7 8.0 16.1 0.00 0.00 0.00 79 1013.1
20260506210638 12 358 8.0 16.1 0.00 0.00 0.00 79 1013.0
20260506210535 12 3 8.0 11.3 0.00 0.00 0.00 79 1013.0
20260506210436 12 0 6.4 11.3 0.00 0.00 0.00 79 1013.0
20260506210336 12 337 6.4 11.3 0.00 0.00 0.00 79 1013.1
20260506210233 12 330 4.8 11.3 0.00 0.00 0.00 79 1013.1
20260506210135 12 0 3.2 11.3 0.00 0.00 0.00 79 1013.1
20260506210034 12 0 4.8 11.3 0.00 0.00 0.00 79 1013.1
20260506205943 12 0 6.4 11.3 0.00 0.00 0.00 79 1013.1
20260506205834 12 6 6.4 11.3 0.00 0.00 0.00 79 1013.1
20260506205733 12 0 6.4 11.3 0.00 0.00 0.00 79 1013.1
20260506205633 12 0 6.4 11.3 0.00 0.00 0.00 79 1013.1
20260506205533 12 0 4.8 11.3 0.00 0.00 0.00 79 1013.1
20260506205435 12 0 4.8 11.3 0.00 0.00 0.00 79 1013.1
20260506205334 12 353 4.8 11.3 0.00 0.00 0.00 79 1013.1
20260506205234 12 0 6.4 11.3 0.00 0.00 0.00 79 1013.0
20260506205134 12 0 8.0 11.3 0.00 0.00 0.00 79 1013.0
20260506205034 12 353 6.4 14.5 0.00 0.00 0.00 79 1013.1
20260506204933 12 0 6.4 14.5 0.00 0.00 0.00 79 1013.0
20260506204833 12 0 6.4 14.5 0.00 0.00 0.00 79 1013.1
20260506204734 12 4 4.8 14.5 0.00 0.00 0.00 79 1013.0
20260506204636 12 4 6.4 14.5 0.00 0.00 0.00 79 1013.0
20260506204536 12 0 6.4 14.5 0.00 0.00 0.00 79 1013.0
20260506204435 12 10 6.4 14.5 0.00 0.00 0.00 80 1013.0
20260506204336 12 13 8.0 14.5 0.00 0.00 0.00 80 1013.0
20260506204235 12 31 8.0 14.5 0.00 0.00 0.00 80 1012.9
20260506204135 12 8 6.4 14.5 0.00 0.00 0.00 80 1013.0
20260506204034 12 355 8.0 14.5 0.00 0.00 0.00 80 1013.0
20260506203933 12 358 9.7 14.5 0.00 0.00 0.00 80 1013.0
20260506203834 12 0 8.0 11.3 0.00 0.00 0.00 80 1012.9
20260506203734 12 340 6.4 11.3 0.00 0.00 0.00 80 1012.9
20260506203634 12 0 8.0 11.3 0.00 0.00 0.00 80 1013.0
20260506203534 12 0 6.4 11.3 0.00 0.00 0.00 80 1012.9
20260506203434 12 0 6.4 11.3 0.00 0.00 0.00 80 1012.9
20260506203334 12 340 6.4 11.3 0.00 0.00 0.00 80 1013.0
20260506203234 12 0 4.8 11.3 0.00 0.00 0.00 80 1013.0
20260506203134 12 0 4.8 11.3 0.00 0.00 0.00 80 1012.9
20260506203034 12 0 6.4 11.3 0.00 0.00 0.00 80 1012.9
20260506202935 12 7 4.8 11.3 0.00 0.00 0.00 80 1012.8
20260506202834 12 0 4.8 11.3 0.00 0.00 0.00 80 1012.9
20260506202734 12 0 8.0 11.3 0.00 0.00 0.00 80 1012.9
20260506202633 12 1 6.4 11.3 0.00 0.00 0.00 80 1012.9
20260506202533 12 0 6.4 11.3 0.00 0.00 0.00 80 1012.9
20260506202432 12 0 4.8 11.3 0.00 0.00 0.00 80 1012.9
20260506202333 12 0 4.8 11.3 0.00 0.00 0.00 80 1012.9
20260506202231 11 0 6.4 11.3 0.00 0.00 0.00 80 1012.9
20260506202130 11 1 6.4 11.3 0.00 0.00 0.00 80 1012.9
20260506202029 12 350 6.4 11.3 0.00 0.00 0.00 80 1012.8
20260506201929 12 0 4.8 14.5 0.00 0.00 0.00 80 1012.9
20260506201832 12 348 4.8 14.5 0.00 0.00 0.00 80 1012.8
20260506201731 12 0 6.4 14.5 0.00 0.00 0.00 79 1012.8
20260506201631 12 0 6.4 14.5 0.00 0.00 0.00 79 1012.8
20260506201529 12 340 6.4 14.5 0.00 0.00 0.00 79 1012.8
20260506201429 12 0 8.0 14.5 0.00 0.00 0.00 79 1012.8
20260506201330 12 0 6.4 16.1 0.00 0.00 0.00 79 1012.8
20260506201230 12 11 6.4 16.1 0.00 0.00 0.00 79 1012.7
20260506201129 12 0 6.4 16.1 0.00 0.00 0.00 79 1012.8
20260506201029 12 1 8.0 16.1 0.00 0.00 0.00 79 1012.8
20260506200928 12 357 8.0 16.1 0.00 0.00 0.00 79 1012.8
20260506200830 12 1 8.0 16.1 0.00 0.00 0.00 79 1012.8
20260506200729 12 347 6.4 16.1 0.00 0.00 0.00 79 1012.8
20260506200630 12 351 6.4 16.1 0.00 0.00 0.00 79 1012.7
20260506200531 12 351 9.7 16.1 0.00 0.00 0.00 79 1012.8
20260506200432 12 336 9.7 16.1 0.00 0.00 0.00 79 1012.8
20260506200330 12 350 8.0 14.5 0.00 0.00 0.00 79 1012.8
20260506200229 12 0 6.4 14.5 0.00 0.00 0.00 79 1012.8
20260506200129 12 358 6.4 14.5 0.00 0.00 0.00 79 1012.8
20260506200029 12 353 8.0 14.5 0.00 0.00 0.00 79 1012.8
20260506195929 12 353 9.7 14.5 0.00 0.00 0.00 79 1012.8
20260506195830 12 0 9.7 14.5 0.00 0.00 0.00 79 1012.8
20260506195730 12 347 8.0 14.5 0.00 0.00 0.00 79 1012.7
20260506195629 12 347 8.0 14.5 0.00 0.00 0.00 79 1012.7
20260506195529 12 357 6.4 14.5 0.00 0.00 0.00 79 1012.7
20260506195429 12 13 4.8 19.3 0.00 0.00 0.00 79 1012.8
20260506195328 12 0 6.4 19.3 0.00 0.00 0.00 79 1012.7
20260506195230 12 347 6.4 19.3 0.00 0.00 0.00 79 1012.7
20260506195129 12 345 6.4 19.3 0.00 0.00 0.00 79 1012.7
20260506195029 12 0 8.0 19.3 0.00 0.00 0.00 79 1012.6
20260506194929 12 343 9.7 19.3 0.00 0.00 0.00 79 1012.6
20260506194831 12 0 9.7 19.3 0.00 0.00 0.00 79 1012.6
20260506194730 12 6 9.7 19.3 0.00 0.00 0.00 79 1012.6
20260506194630 12 357 9.7 19.3 0.00 0.00 0.00 79 1012.6
20260506194529 12 0 8.0 19.3 0.00 0.00 0.00 79 1012.6
20260506194429 12 0 8.0 14.5 0.00 0.00 0.00 79 1012.6
20260506194329 12 0 9.7 14.5 0.00 0.00 0.00 79 1012.6
20260506194229 12 358 9.7 14.5 0.00 0.00 0.00 79 1012.6
20260506194129 12 1 8.0 14.5 0.00 0.00 0.00 79 1012.5
20260506194030 12 0 8.0 14.5 0.00 0.00 0.00 79 1012.4
20260506193929 12 0 6.4 16.1 0.00 0.00 0.00 79 1012.5
20260506193828 12 358 6.4 16.1 0.00 0.00 0.00 79 1012.5
20260506193729 12 351 8.0 16.1 0.00 0.00 0.00 79 1012.5
20260506193629 12 343 9.7 17.7 0.00 0.00 0.00 79 1012.5
20260506193529 12 0 8.0 17.7 0.00 0.00 0.00 79 1012.5
20260506193430 12 1 6.4 17.7 0.00 0.00 0.00 79 1012.5
20260506193330 12 0 6.4 17.7 0.00 0.00 0.00 79 1012.5
20260506193229 12 0 8.0 17.7 0.00 0.00 0.00 79 1012.5
20260506193126 12 337 8.0 17.7 0.00 0.00 0.00 79 1012.5
20260506193025 12 0 8.0 17.7 0.00 0.00 0.00 79 1012.5
20260506192923 12 343 8.0 17.7 0.00 0.00 0.00 79 1012.4
20260506192815 12 11 9.7 17.7 0.00 0.00 0.00 79 1012.4
20260506192711 12 350 9.7 19.3 0.00 0.00 0.00 78 1012.4
20260506192610 12 25 8.0 19.3 0.00 0.00 0.00 78 1012.4
20260506192510 12 319 8.0 19.3 0.00 0.00 0.00 78 1012.4
20260506192410 12 0 8.0 19.3 0.00 0.00 0.00 78 1012.4
20260506192310 12 0 8.0 19.3 0.00 0.00 0.00 78 1012.4
20260506192207 12 347 9.7 19.3 0.00 0.00 0.00 78 1012.4
20260506192107 12 343 8.0 19.3 0.00 0.00 0.00 78 1012.4
20260506192006 12 6 8.0 19.3 0.00 0.00 0.00 78 1012.3
20260506191906 12 354 9.7 19.3 0.00 0.00 0.00 78 1012.3
20260506191806 12 355 11.3 19.3 0.00 0.00 0.00 78 1012.3
20260506191707 12 329 9.7 19.3 0.00 0.00 0.00 78 1012.4
20260506191606 12 0 8.0 19.3 0.00 0.00 0.00 78 1012.3
20260506191506 12 345 9.7 19.3 0.00 0.00 0.00 78 1012.4
20260506191406 12 320 11.3 19.3 0.00 0.00 0.00 78 1012.3
20260506191304 12 358 9.7 19.3 0.00 0.00 0.00 78 1012.3
20260506191204 12 8 9.7 19.3 0.00 0.00 0.00 78 1012.4
20260506191104 12 347 9.7 19.3 0.00 0.00 0.00 78 1012.4
20260506191004 12 340 9.7 19.3 0.00 0.00 0.00 78 1012.4
20260506190900 12 8 11.3 19.3 0.00 0.00 0.00 78 1012.3
20260506190802 12 0 11.3 20.9 0.00 0.00 0.00 78 1012.3
20260506190702 12 317 11.3 20.9 0.00 0.00 0.00 78 1012.3
20260506190601 12 347 11.3 20.9 0.00 0.00 0.00 78 1012.3
20260506190501 12 324 11.3 20.9 0.00 0.00 0.00 78 1012.3
20260506190357 12 355 11.3 20.9 0.00 0.00 0.00 78 1012.3
20260506190258 12 0 9.7 20.9 0.00 0.00 0.00 78 1012.2
20260506190157 12 334 11.3 20.9 0.00 0.00 0.00 78 1012.3
20260506190057 12 340 11.3 20.9 0.00 0.00 0.00 78 1012.2
20260506185957 12 354 11.3 20.9 0.00 0.00 0.00 78 1012.2
20260506185856 12 0 12.9 20.9 0.00 0.00 0.00 78 1012.2
20260506185755 12 338 9.7 19.3 0.00 0.00 0.00 78 1012.3
20260506185656 12 354 8.0 19.3 0.00 0.00 0.00 78 1012.2
20260506185554 12 345 8.0 19.3 0.00 0.00 0.00 78 1012.2
20260506185455 12 334 11.3 19.3 0.00 0.00 0.00 78 1012.2
20260506185355 12 314 12.9 19.3 0.00 0.00 0.00 78 1012.1
20260506185254 12 344 9.7 19.3 0.00 0.00 0.00 78 1012.1
20260506185154 12 331 9.7 19.3 0.00 0.00 0.00 78 1012.1
20260506185053 12 0 9.7 19.3 0.00 0.00 0.00 78 1012.1
20260506184954 12 0 9.7 19.3 0.00 0.00 0.00 78 1012.1
20260506184851 12 341 11.3 19.3 0.00 0.00 0.00 78 1012.0
20260506184752 12 348 12.9 19.3 0.00 0.00 0.00 78 1012.1
20260506184653 12 8 9.7 17.7 0.00 0.00 0.00 78 1012.1
20260506184552 12 319 9.7 17.7 0.00 0.00 0.00 78 1012.1
20260506184452 12 344 9.7 17.7 0.00 0.00 0.00 78 1012.1
20260506184351 12 0 9.7 17.7 0.00 0.00 0.00 78 1012.0
20260506184250 12 343 11.3 17.7 0.00 0.00 0.00 78 1012.1
20260506184149 12 0 9.7 19.3 0.00 0.00 0.00 78 1012.0
20260506184048 12 4 8.0 19.3 0.00 0.00 0.00 78 1012.0
20260506183947 12 353 9.7 19.3 0.00 0.00 0.00 78 1012.0
20260506183848 12 321 9.7 19.3 0.00 0.00 0.00 78 1012.0
20260506183745 12 317 11.3 19.3 0.00 0.00 0.00 78 1012.0
20260506183645 12 0 11.3 19.3 0.00 0.00 0.00 77 1012.0
20260506183545 12 326 11.3 19.3 0.00 0.00 0.00 77 1012.0
20260506183444 12 341 12.9 19.3 0.00 0.00 0.00 77 1012.0
20260506183341 12 0 11.3 19.3 0.00 0.00 0.00 77 1012.0
20260506183242 12 333 9.7 19.3 0.00 0.00 0.00 77 1012.0
20260506183141 12 358 9.7 19.3 0.00 0.00 0.00 77 1011.9
20260506183040 12 10 11.3 19.3 0.00 0.00 0.00 77 1011.9
20260506182939 12 28 12.9 19.3 0.00 0.00 0.00 77 1011.9
20260506182839 12 0 14.5 22.5 0.00 0.00 0.00 77 1011.9
20260506182738 12 348 12.9 22.5 0.00 0.00 0.00 77 1011.9
20260506182636 12 336 11.3 22.5 0.00 0.00 0.00 77 1011.9
20260506182536 12 345 11.3 22.5 0.00 0.00 0.00 77 1011.9
20260506182434 12 0 11.3 22.5 0.00 0.00 0.00 76 1011.9
20260506182336 12 0 12.9 22.5 0.00 0.00 0.00 76 1011.9
20260506182234 12 357 11.3 22.5 0.00 0.00 0.00 76 1011.9
20260506182135 12 0 9.7 22.5 0.00 0.00 0.00 76 1011.8
20260506182033 12 353 11.3 22.5 0.00 0.00 0.00 76 1011.9
20260506181935 12 0 11.3 22.5 0.00 0.00 0.00 76 1011.9
20260506181836 12 357 9.7 22.5 0.00 0.00 0.00 76 1011.8
20260506181735 12 0 9.7 22.5 0.00 0.00 0.00 75 1011.8
20260506181637 12 350 11.3 22.5 0.00 0.00 0.00 75 1011.7
20260506181535 12 0 12.9 22.5 0.00 0.00 0.00 75 1011.8
20260506181436 12 343 11.3 22.5 0.00 0.00 0.00 75 1011.8
20260506181334 12 341 14.5 22.5 0.00 0.00 0.00 75 1011.8
20260506181233 12 0 14.5 22.5 0.00 0.00 0.00 75 1011.6
20260506181133 12 0 12.9 20.9 0.00 0.00 0.00 75 1011.7
20260506181034 12 324 12.9 19.3 0.00 0.00 0.00 75 1011.7
20260506180934 12 338 12.9 19.3 0.00 0.00 0.00 75 1011.7
20260506180834 12 0 12.9 19.3 0.00 0.00 0.00 75 1011.6
20260506180734 12 353 11.3 19.3 0.00 0.00 0.00 74 1011.5
20260506180633 12 334 9.7 19.3 0.00 0.00 0.00 74 1011.6
20260506180533 12 0 11.3 19.3 0.00 0.00 0.00 74 1011.6
20260506180433 12 310 11.3 19.3 0.00 0.00 0.00 74 1011.5
20260506180330 12 0 12.9 20.9 0.00 0.00 0.00 74 1011.5
20260506180229 12 357 11.3 20.9 0.00 0.00 0.00 74 1011.4
20260506180129 12 337 11.3 20.9 0.00 0.00 0.00 74 1011.5
20260506180029 12 0 12.9 20.9 0.00 0.00 0.00 74 1011.5
20260506175931 12 0 11.3 22.5 0.00 0.00 0.00 74 1011.5
20260506175832 13 0 11.3 22.5 0.00 0.00 0.00 74 1011.5
20260506175730 13 0 11.3 22.5 0.00 0.00 0.00 74 1011.4
20260506175629 13 0 9.7 22.5 0.00 0.00 0.00 74 1011.4
20260506175529 13 355 11.3 22.5 0.00 0.00 0.00 74 1011.5
20260506175429 13 350 12.9 22.5 0.00 0.00 0.00 74 1011.5
20260506175330 13 334 11.3 22.5 0.00 0.00 0.00 73 1011.3
20260506175230 13 327 12.9 22.5 0.00 0.00 0.00 73 1011.3
20260506175131 13 343 14.5 22.5 0.00 0.00 0.00 73 1011.3
20260506175029 13 330 12.9 22.5 0.00 0.00 0.00 74 1011.4
20260506174928 13 0 11.3 29.0 0.00 0.00 0.00 74 1011.3
20260506174830 13 341 12.9 29.0 0.00 0.00 0.00 73 1011.4
20260506174730 13 0 12.9 29.0 0.00 0.00 0.00 73 1011.4
20260506174628 13 324 11.3 29.0 0.00 0.00 0.00 73 1011.4
20260506174530 13 28 11.3 29.0 0.00 0.00 0.00 73 1011.3
20260506174427 13 357 14.5 29.0 0.00 0.00 0.00 72 1011.3
20260506174328 13 327 14.5 29.0 0.00 0.00 0.00 72 1011.4
20260506174227 13 336 16.1 29.0 0.00 0.00 0.00 72 1011.4
20260506174127 13 334 16.1 29.0 0.00 0.00 0.00 72 1011.2
20260506174026 13 316 16.1 29.0 0.00 0.00 0.00 72 1011.3
20260506173927 13 338 16.1 24.1 0.00 0.00 0.00 72 1011.2
20260506173825 13 358 14.5 24.1 0.00 0.00 0.00 72 1011.3
20260506173725 13 353 12.9 22.5 0.00 0.00 0.00 72 1011.2
20260506173624 13 17 14.5 22.5 0.00 0.00 0.00 72 1011.2
20260506173524 13 0 14.5 25.7 0.00 0.00 0.00 72 1011.2
20260506173424 13 337 14.5 25.7 0.00 0.00 0.00 72 1011.2
20260506173326 13 303 14.5 25.7 0.00 0.00 0.00 72 1011.3
20260506173224 13 344 14.5 27.4 0.00 0.00 0.00 72 1011.2
20260506173124 13 0 11.3 27.4 0.00 0.00 0.00 72 1011.2
20260506173018 13 11 11.3 27.4 0.00 0.00 0.00 72 1011.2
20260506172915 13 348 12.9 27.4 0.00 0.00 0.00 72 1011.3
20260506172815 13 353 12.9 27.4 0.00 0.00 0.00 71 1011.3
20260506172717 13 348 14.5 27.4 0.00 0.00 0.00 71 1011.1
20260506172617 13 338 14.5 27.4 0.00 0.00 0.00 71 1011.1
20260506172513 13 333 14.5 27.4 0.00 0.00 0.00 71 1011.2
20260506172413 13 331 16.1 27.4 0.00 0.00 0.00 71 1011.1
20260506172308 13 333 16.1 24.1 0.00 0.00 0.00 71 1011.1
20260506172207 13 309 14.5 24.1 0.00 0.00 0.00 71 1011.2
20260506172106 13 333 12.9 24.1 0.00 0.00 0.00 71 1011.2
20260506172004 13 348 14.5 24.1 0.00 0.00 0.00 71 1011.1
20260506171903 13 329 14.5 24.1 0.00 0.00 0.00 71 1011.1
20260506171802 13 0 14.5 24.1 0.00 0.00 0.00 71 1011.2
20260506171702 13 351 16.1 24.1 0.00 0.00 0.00 70 1011.1
20260506171559 13 0 16.1 24.1 0.00 0.00 0.00 70 1011.1
20260506171459 13 341 14.5 24.1 0.00 0.00 0.00 70 1011.2
20260506171359 13 1 14.5 24.1 0.00 0.00 0.00 70 1011.1
20260506171257 13 6 14.5 25.7 0.00 0.00 0.00 70 1011.1
20260506171158 13 338 14.5 25.7 0.00 0.00 0.00 70 1011.1
20260506171058 13 345 11.3 25.7 0.00 0.00 0.00 70 1011.1
20260506170958 13 7 11.3 25.7 0.00 0.00 0.00 70 1011.1
20260506170855 13 351 14.5 25.7 0.00 0.00 0.00 69 1011.1
20260506170757 13 357 16.1 25.7 0.00 0.00 0.00 69 1011.0
20260506170656 13 357 16.1 25.7 0.00 0.00 0.00 69 1011.0
20260506170556 13 350 14.5 25.7 0.00 0.00 0.00 70 1011.1
20260506170456 13 344 16.1 25.7 0.00 0.00 0.00 69 1011.0
20260506170355 13 0 14.5 25.7 0.00 0.00 0.00 70 1011.1
20260506170254 13 347 12.9 24.1 0.00 0.00 0.00 70 1011.1
20260506170153 13 357 11.3 24.1 0.00 0.00 0.00 70 1011.1
20260506170053 13 0 9.7 25.7 0.00 0.00 0.00 70 1011.0
20260506165953 13 344 11.3 25.7 0.00 0.00 0.00 69 1011.0
20260506165853 13 354 14.5 25.7 0.00 0.00 0.00 69 1011.0
20260506165753 13 313 14.5 25.7 0.00 0.00 0.00 69 1011.0
20260506165650 13 344 12.9 25.7 0.00 0.00 0.00 69 1011.0
20260506165550 13 326 16.1 25.7 0.00 0.00 0.00 69 1011.0
20260506165449 13 329 14.5 25.7 0.00 0.00 0.00 70 1011.0
20260506165348 13 0 12.9 25.7 0.00 0.00 0.00 70 1011.0
20260506165250 13 0 14.5 25.7 0.00 0.00 0.00 70 1010.9
20260506165148 13 333 14.5 25.7 0.00 0.00 0.00 70 1011.0
20260506165048 13 329 12.9 25.7 0.00 0.00 0.00 70 1011.0
20260506164947 13 331 14.5 25.7 0.00 0.00 0.00 69 1010.9
20260506164846 13 326 14.5 25.7 0.00 0.00 0.00 69 1010.9
20260506164745 13 330 12.9 25.7 0.00 0.00 0.00 69 1011.0
20260506164645 13 0 12.9 25.7 0.00 0.00 0.00 69 1011.0
20260506164544 13 341 12.9 25.7 0.00 0.00 0.00 69 1010.9
20260506164445 13 331 14.5 25.7 0.00 0.00 0.00 69 1011.0
20260506164344 13 350 9.7 24.1 0.00 0.00 0.00 69 1010.9
20260506164244 13 351 9.7 24.1 0.00 0.00 0.00 69 1011.0
20260506164144 13 340 12.9 24.1 0.00 0.00 0.00 69 1011.0
20260506164045 13 0 16.1 24.1 0.00 0.00 0.00 69 1010.9
20260506163943 13 347 16.1 24.1 0.00 0.00 0.00 69 1011.0
20260506163838 13 333 14.5 24.1 0.00 0.00 0.00 69 1010.9
20260506163740 13 343 14.5 24.1 0.00 0.00 0.00 69 1011.0
20260506163639 13 354 16.1 24.1 0.00 0.00 0.00 69 1010.8
20260506163540 13 0 17.7 24.1 0.00 0.00 0.00 69 1010.9
20260506163439 13 334 16.1 22.5 0.00 0.00 0.00 69 1010.9
20260506163338 13 345 14.5 22.5 0.00 0.00 0.00 69 1010.9
20260506163238 13 353 14.5 22.5 0.00 0.00 0.00 69 1010.9
20260506163137 13 0 14.5 22.5 0.00 0.00 0.00 69 1010.9
20260506163038 13 358 14.5 22.5 0.00 0.00 0.00 69 1011.0
20260506162936 13 0 14.5 22.5 0.00 0.00 0.00 69 1011.0
20260506162838 13 354 12.9 22.5 0.00 0.00 0.00 69 1010.8
20260506162738 14 354 11.3 27.4 0.00 0.00 0.00 69 1010.9
20260506162635 13 344 11.3 27.4 0.00 0.00 0.00 69 1010.9
20260506162536 13 341 12.9 27.4 0.00 0.00 0.00 69 1010.9
20260506162435 13 338 11.3 27.4 0.00 0.00 0.00 70 1010.8
20260506162334 13 0 12.9 27.4 0.00 0.00 0.00 70 1010.8
20260506162234 14 265 16.1 27.4 0.00 0.00 0.00 70 1010.9
20260506162130 14 343 14.5 27.4 0.00 0.00 0.00 70 1010.9
20260506162031 14 357 14.5 27.4 0.00 0.00 0.00 70 1010.8
20260506161931 14 18 16.1 27.4 0.00 0.00 0.00 70 1010.8
20260506161831 14 357 16.1 27.4 0.00 0.00 0.00 70 1010.8
20260506161731 14 334 14.5 27.4 0.00 0.00 0.00 70 1010.8
20260506161631 14 0 14.5 27.4 0.00 0.00 0.00 70 1010.8
20260506161530 14 319 14.5 27.4 0.00 0.00 0.00 71 1010.8
20260506161430 14 337 14.5 27.4 0.00 0.00 0.00 72 1010.8
20260506161330 14 0 14.5 27.4 0.00 0.00 0.00 72 1010.8
20260506161230 14 354 11.3 27.4 0.00 0.00 0.00 72 1010.7
20260506161129 13 353 12.9 27.4 0.00 0.00 0.00 71 1010.8
20260506161029 13 331 16.1 27.4 0.00 0.00 0.00 71 1010.9
20260506160930 14 10 16.1 27.4 0.00 0.00 0.00 71 1010.8
20260506160829 14 309 14.5 27.4 0.00 0.00 0.00 71 1010.9
20260506160730 14 340 16.1 27.4 0.00 0.00 0.00 70 1010.9
20260506160630 14 331 17.7 27.4 0.00 0.00 0.00 71 1010.8
20260506160529 14 348 17.7 24.1 0.00 0.00 0.00 71 1010.9
20260506160429 14 343 16.1 24.1 0.00 0.00 0.00 71 1010.9
20260506160329 14 337 14.5 24.1 0.00 0.00 0.00 70 1010.9
20260506160229 14 7 14.5 24.1 0.00 0.00 0.00 71 1010.9
20260506160129 14 358 14.5 24.1 0.00 0.00 0.00 71 1010.9
20260506160028 14 355 16.1 24.1 0.00 0.00 0.00 71 1011.0
20260506155928 14 323 14.5 24.1 0.00 0.00 0.00 72 1010.9
20260506155828 14 344 12.9 24.1 0.00 0.00 0.00 72 1010.9
20260506155727 14 327 12.9 24.1 0.00 0.00 0.00 72 1010.9
20260506155630 14 353 12.9 24.1 0.00 0.00 0.00 72 1010.9
20260506155527 14 272 14.5 24.1 0.00 0.00 0.00 72 1010.9
20260506155427 14 341 14.5 24.1 0.00 0.00 0.00 72 1010.8
20260506155327 14 351 14.5 24.1 0.00 0.00 0.00 72 1010.9
20260506155225 14 337 14.5 24.1 0.00 0.00 0.00 71 1010.8
20260506155124 14 320 16.1 24.1 0.00 0.00 0.00 71 1010.9
20260506155025 14 0 14.5 24.1 0.00 0.00 0.00 71 1010.9
20260506154924 14 336 12.9 24.1 0.00 0.00 0.00 71 1010.8
20260506154823 14 334 12.9 22.5 0.00 0.00 0.00 70 1010.9
20260506154723 14 358 14.5 22.5 0.00 0.00 0.00 70 1010.9
20260506154620 14 353 14.5 22.5 0.00 0.00 0.00 71 1010.8
20260506154521 14 348 12.9 22.5 0.00 0.00 0.00 72 1010.8
20260506154420 14 347 11.3 22.5 0.00 0.00 0.00 71 1010.9
20260506154320 14 341 11.3 22.5 0.00 0.00 0.00 71 1010.8
20260506154219 14 305 11.3 22.5 0.00 0.00 0.00 71 1010.9
20260506154118 14 0 12.9 22.5 0.00 0.00 0.00 70 1010.8
20260506154018 14 336 14.5 22.5 0.00 0.00 0.00 70 1010.9
20260506153918 14 319 14.5 22.5 0.00 0.00 0.00 70 1010.8
20260506153818 14 6 11.3 22.5 0.00 0.00 0.00 70 1010.9
20260506153714 14 21 12.9 22.5 0.00 0.00 0.00 71 1010.9
20260506153615 14 324 12.9 22.5 0.00 0.00 0.00 71 1010.8
20260506153514 14 348 11.3 22.5 0.00 0.00 0.00 71 1010.9
20260506153415 14 336 12.9 24.1 0.00 0.00 0.00 72 1010.9
20260506153313 14 344 14.5 24.1 0.00 0.00 0.00 72 1010.9
20260506153213 14 350 14.5 24.1 0.00 0.00 0.00 72 1010.8
20260506153114 14 341 12.9 24.1 0.00 0.00 0.00 72 1010.8
20260506153013 14 340 9.7 24.1 0.00 0.00 0.00 72 1010.9
20260506152914 14 343 11.3 24.1 0.00 0.00 0.00 71 1010.9
20260506152812 14 0 11.3 24.1 0.00 0.00 0.00 70 1010.9
20260506152710 14 344 11.3 24.1 0.00 0.00 0.00 70 1010.9
20260506152622 14 343 14.5 24.1 0.00 0.00 0.00 70 1011.0
20260506152508 14 326 14.5 24.1 0.00 0.00 0.00 70 1010.8
20260506152409 14 350 12.9 24.1 0.00 0.00 0.00 70 1010.9
20260506152309 14 0 12.9 24.1 0.00 0.00 0.00 69 1010.9
20260506152210 14 354 14.5 24.1 0.00 0.00 0.00 69 1010.9
20260506152108 15 338 14.5 24.1 0.00 0.00 0.00 69 1010.9
20260506152009 15 327 12.9 24.1 0.00 0.00 0.00 70 1010.8
20260506151907 15 340 11.3 24.1 0.00 0.00 0.00 70 1010.9
20260506151808 15 344 11.3 24.1 0.00 0.00 0.00 70 1010.8
20260506151707 15 355 11.3 22.5 0.00 0.00 0.00 70 1010.8
20260506151607 15 307 11.3 22.5 0.00 0.00 0.00 70 1010.9
20260506151507 15 331 11.3 22.5 0.00 0.00 0.00 68 1010.8
20260506151406 15 0 12.9 22.5 0.00 0.00 0.00 67 1010.8
20260506151305 15 341 11.3 20.9 0.00 0.00 0.00 67 1010.8
20260506151203 15 331 12.9 20.9 0.00 0.00 0.00 67 1010.8
20260506151103 15 355 14.5 20.9 0.00 0.00 0.00 67 1010.8
20260506151002 15 313 14.5 20.9 0.00 0.00 0.00 67 1010.8
20260506150901 15 6 11.3 20.9 0.00 0.00 0.00 68 1010.8
20260506150801 15 358 11.3 20.9 0.00 0.00 0.00 68 1010.8
20260506150703 15 341 12.9 20.9 0.00 0.00 0.00 68 1010.8
20260506150601 15 341 14.5 20.9 0.00 0.00 0.00 68 1010.8
20260506150502 15 338 12.9 20.9 0.00 0.00 0.00 70 1010.8
20260506150401 15 333 9.7 19.3 0.00 0.00 0.00 70 1010.7
20260506150305 15 344 9.7 22.5 0.00 0.00 0.00 69 1010.8
20260506150202 15 333 11.3 25.7 0.00 0.00 0.00 69 1010.8
20260506150000 14 292 9.7 25.7 0.00 0.00 0.00 69 1010.8
20260506145901 14 353 9.7 25.7 0.00 0.00 0.00 68 1010.9
20260506145759 14 357 9.7 27.4 0.00 0.00 0.00 68 1010.8
20260506145700 14 321 9.7 27.4 0.00 0.00 0.00 68 1010.8
20260506145559 14 282 12.9 27.4 0.00 0.00 0.00 68 1010.9
20260506145459 14 344 14.5 27.4 0.00 0.00 0.00 67 1010.8
20260506145358 14 353 16.1 27.4 0.00 0.00 0.00 68 1010.8
20260506145258 14 358 12.9 27.4 0.00 0.00 0.00 69 1010.9
20260506145158 14 355 11.3 27.4 0.00 0.00 0.00 68 1010.7
20260506145054 14 336 14.5 27.4 0.00 0.00 0.00 67 1010.8
20260506144954 14 324 17.7 27.4 0.00 0.00 0.00 67 1010.8
20260506144853 14 324 17.7 27.4 0.00 0.00 0.00 67 1010.8
20260506144754 14 326 14.5 24.1 0.00 0.00 0.00 68 1010.8
20260506144653 14 347 11.3 24.1 0.00 0.00 0.00 68 1010.8
20260506144554 14 319 11.3 25.7 0.00 0.00 0.00 68 1010.8
20260506144454 14 350 14.5 25.7 0.00 0.00 0.00 68 1010.8
20260506144353 14 313 14.5 25.7 0.00 0.00 0.00 68 1010.9
20260506144254 14 338 14.5 25.7 0.00 0.00 0.00 70 1010.8
20260506144151 14 343 12.9 25.7 0.00 0.00 0.00 71 1010.8
20260506144052 14 350 12.9 25.7 0.00 0.00 0.00 70 1010.8
20260506143950 14 288 14.5 25.7 0.00 0.00 0.00 69 1010.8
20260506143850 14 327 14.5 29.0 0.00 0.00 0.00 68 1010.8
20260506143750 15 358 16.1 29.0 0.00 0.00 0.00 68 1010.9
20260506143650 15 347 14.5 29.0 0.00 0.00 0.00 69 1010.8
20260506143550 14 333 12.9 29.0 0.00 0.00 0.00 69 1010.9
20260506143449 14 350 14.5 29.0 0.00 0.00 0.00 70 1010.8
20260506143348 15 340 16.1 29.0 0.00 0.00 0.00 69 1010.8
20260506143248 14 340 11.3 29.0 0.00 0.00 0.00 69 1010.8
20260506143148 14 0 14.5 29.0 0.00 0.00 0.00 68 1010.8
20260506143048 14 289 17.7 29.0 0.00 0.00 0.00 68 1010.8
20260506142947 15 336 16.1 29.0 0.00 0.00 0.00 69 1010.7
20260506142847 14 345 12.9 24.1 0.00 0.00 0.00 70 1010.8
20260506142746 14 1 12.9 24.1 0.00 0.00 0.00 70 1010.8
20260506142643 14 330 16.1 24.1 0.00 0.00 0.00 70 1010.8
20260506142545 14 334 14.5 24.1 0.00 0.00 0.00 70 1010.7
20260506142442 14 317 9.7 24.1 0.00 0.00 0.00 71 1010.7
20260506142341 14 347 9.7 24.1 0.00 0.00 0.00 70 1010.8
20260506142240 14 0 12.9 24.1 0.00 0.00 0.00 70 1010.7
20260506142138 15 0 16.1 24.1 0.00 0.00 0.00 70 1010.8
20260506142037 15 355 14.5 24.1 0.00 0.00 0.00 70 1010.7
20260506141938 15 0 12.9 24.1 0.00 0.00 0.00 71 1010.7
20260506141837 15 331 12.9 22.5 0.00 0.00 0.00 70 1010.7
20260506141737 15 341 14.5 22.5 0.00 0.00 0.00 70 1010.8
20260506141637 15 345 12.9 22.5 0.00 0.00 0.00 70 1010.7
20260506141539 15 358 12.9 22.5 0.00 0.00 0.00 70 1010.8
20260506141439 15 344 11.3 22.5 0.00 0.00 0.00 70 1010.7
20260506141336 15 341 12.9 22.5 0.00 0.00 0.00 70 1010.7
20260506141236 15 18 16.1 22.5 0.00 0.00 0.00 71 1010.7
20260506141136 15 337 14.5 22.5 0.00 0.00 0.00 72 1010.8
20260506141035 15 0 11.3 22.5 0.00 0.00 0.00 72 1010.8
20260506140935 15 350 11.3 22.5 0.00 0.00 0.00 73 1010.8
20260506140831 15 310 12.9 22.5 0.00 0.00 0.00 73 1010.8
20260506140730 15 278 11.3 30.6 0.00 0.00 0.00 71 1010.8
20260506140627 15 293 11.3 30.6 0.00 0.00 0.00 71 1010.8
20260506140528 15 319 12.9 30.6 0.00 0.00 0.00 70 1010.9
20260506140426 15 330 14.5 30.6 0.00 0.00 0.00 71 1010.8
20260506140326 15 324 12.9 30.6 0.00 0.00 0.00 72 1010.8
20260506140226 15 324 11.3 30.6 0.00 0.00 0.00 72 1010.8
20260506140127 15 323 11.3 30.6 0.00 0.00 0.00 72 1010.8
20260506140025 15 314 12.9 30.6 0.00 0.00 0.00 72 1010.9
20260506135924 15 357 17.7 30.6 0.00 0.00 0.00 71 1010.9
20260506135824 15 329 17.7 30.6 0.00 0.00 0.00 72 1010.9
20260506135724 15 343 12.9 22.5 0.00 0.00 0.00 74 1010.9
20260506135624 15 320 11.3 22.5 0.00 0.00 0.00 75 1010.9
20260506135524 15 329 12.9 25.7 0.00 0.00 0.00 75 1010.9
20260506135423 15 314 9.7 25.7 0.00 0.00 0.00 75 1010.9
20260506135322 14 0 11.3 25.7 0.00 0.00 0.00 74 1010.9
20260506135222 14 320 11.3 25.7 0.00 0.00 0.00 75 1010.8
20260506135122 14 0 8.0 25.7 0.00 0.00 0.00 75 1010.9
20260506135021 14 321 11.3 25.7 0.00 0.00 0.00 76 1010.9
20260506134921 14 313 14.5 25.7 0.00 0.00 0.00 75 1010.9
20260506134820 14 293 14.5 25.7 0.00 0.00 0.00 76 1010.9
20260506134720 14 302 12.9 25.7 0.00 0.00 0.00 75 1010.8
20260506134622 14 286 14.5 25.7 0.00 0.00 0.00 75 1010.9
20260506134519 14 333 11.3 25.7 0.00 0.00 0.00 75 1010.8
20260506134417 14 290 9.7 25.7 0.00 0.00 0.00 72 1010.8
20260506134314 14 350 11.3 25.7 0.00 0.00 0.00 72 1010.9
20260506134213 14 355 14.5 25.7 0.00 0.00 0.00 73 1010.9
20260506134112 15 343 16.1 25.7 0.00 0.00 0.00 74 1010.9
20260506134009 15 4 16.1 25.7 0.00 0.00 0.00 75 1010.9
20260506133910 15 275 12.9 24.1 0.00 0.00 0.00 76 1010.8
20260506133810 15 314 11.3 19.3 0.00 0.00 0.00 76 1010.8
20260506133704 15 338 11.3 19.3 0.00 0.00 0.00 75 1010.9
20260506133604 15 285 12.9 20.9 0.00 0.00 0.00 75 1010.9
20260506133506 15 285 11.3 20.9 0.00 0.00 0.00 75 1010.9
20260506133403 15 296 9.7 20.9 0.00 0.00 0.00 76 1010.9
20260506133304 15 341 11.3 20.9 0.00 0.00 0.00 77 1010.9
20260506133201 15 334 12.9 20.9 0.00 0.00 0.00 75 1010.9
20260506133101 15 296 12.9 20.9 0.00 0.00 0.00 76 1010.9
20260506133001 15 348 11.3 20.9 0.00 0.00 0.00 76 1010.9
20260506132901 15 286 11.3 20.9 0.00 0.00 0.00 76 1010.9
20260506132802 15 306 14.5 20.9 0.00 0.00 0.00 76 1011.0
20260506132702 15 330 14.5 20.9 0.00 0.00 0.00 75 1010.9
20260506132601 15 293 11.3 25.7 0.00 0.00 0.00 75 1010.9
20260506132504 15 340 11.3 25.7 0.00 0.00 0.00 75 1011.0
20260506132401 15 354 9.7 25.7 0.00 0.00 0.00 75 1010.9
20260506132301 15 286 11.3 25.7 0.00 0.00 0.00 75 1010.9
20260506132202 14 307 11.3 25.7 0.00 0.00 0.00 75 1010.8
20260506132103 14 344 9.7 25.7 0.00 0.00 0.00 75 1010.9
20260506132003 14 319 9.7 25.7 0.00 0.00 0.00 74 1010.8
20260506131903 14 338 12.9 25.7 0.00 0.00 0.00 72 1010.9
20260506131801 14 333 14.5 25.7 0.00 0.00 0.00 72 1010.9
20260506131701 14 327 12.9 25.7 0.00 0.00 0.00 72 1010.8
20260506131601 14 3 12.9 24.1 0.00 0.00 0.00 72 1010.9
20260506131458 14 357 12.9 24.1 0.00 0.00 0.00 73 1010.9
20260506131357 14 340 14.5 24.1 0.00 0.00 0.00 72 1010.9
20260506131258 14 0 17.7 24.1 0.00 0.00 0.00 72 1010.9
20260506131200 14 337 12.9 24.1 0.00 0.00 0.00 74 1010.8
20260506131059 14 321 11.3 24.1 0.00 0.00 0.00 74 1010.7
20260506130957 14 330 14.5 24.1 0.00 0.00 0.00 73 1010.7
20260506130855 14 330 16.1 24.1 0.00 0.00 0.00 72 1010.8
20260506130756 14 341 16.1 24.1 0.00 0.00 0.00 72 1010.8
20260506130654 14 337 16.1 24.1 0.00 0.00 0.00 72 1010.8
20260506130552 14 336 14.5 24.1 0.00 0.00 0.00 72 1010.9
20260506130446 14 358 14.5 24.1 0.00 0.00 0.00 72 1010.7
20260506130344 14 337 14.5 24.1 0.00 0.00 0.00 73 1010.7
20260506130244 14 7 14.5 24.1 0.00 0.00 0.00 74 1010.7
20260506130143 14 351 11.3 25.7 0.00 0.00 0.00 74 1010.7
20260506130042 14 323 12.9 25.7 0.00 0.00 0.00 73 1010.7
20260506125942 14 348 12.9 25.7 0.00 0.00 0.00 74 1010.7
20260506125842 13 324 12.9 25.7 0.00 0.00 0.00 74 1010.7
20260506125746 13 345 12.9 25.7 0.00 0.00 0.00 74 1010.7
20260506125640 13 334 14.5 25.7 0.00 0.00 0.00 74 1010.7
20260506125540 13 344 12.9 25.7 0.00 0.00 0.00 73 1010.7
20260506125440 13 323 14.5 25.7 0.00 0.00 0.00 74 1010.6
20260506125237 14 8 14.5 25.7 0.00 0.00 0.00 75 1010.6
20260506125137 14 0 11.3 25.7 0.00 0.00 0.00 74 1010.6
20260506125038 14 336 14.5 25.7 0.00 0.00 0.00 73 1010.5
20260506124934 14 347 16.1 25.7 0.00 0.00 0.00 72 1010.7
20260506124836 15 348 14.5 22.5 0.00 0.00 0.00 73 1010.6
20260506124737 15 323 11.3 22.5 0.00 0.00 0.00 74 1010.6
20260506124637 15 354 14.5 22.5 0.00 0.00 0.00 74 1010.6
20260506124536 14 347 12.9 24.1 0.00 0.00 0.00 74 1010.5
20260506124434 14 351 11.3 24.1 0.00 0.00 0.00 75 1010.5
20260506124333 14 338 12.9 27.4 0.00 0.00 0.00 74 1010.6
20260506124233 14 347 12.9 27.4 0.00 0.00 0.00 73 1010.7
20260506124133 14 354 12.9 27.4 0.00 0.00 0.00 74 1010.7
20260506124033 14 320 11.3 27.4 0.00 0.00 0.00 74 1010.6
20260506123934 14 0 11.3 27.4 0.00 0.00 0.00 74 1010.6
20260506123834 14 334 12.9 27.4 0.00 0.00 0.00 74 1010.6
20260506123733 14 341 16.1 29.0 0.00 0.00 0.00 75 1010.5
20260506123633 14 327 14.5 29.0 0.00 0.00 0.00 74 1010.5
20260506123533 14 0 14.5 29.0 0.00 0.00 0.00 74 1010.7
20260506123433 14 344 16.1 29.0 0.00 0.00 0.00 74 1010.7
20260506123333 14 0 16.1 29.0 0.00 0.00 0.00 74 1010.6
20260506123234 14 337 16.1 29.0 0.00 0.00 0.00 73 1010.6
20260506123134 14 343 17.7 29.0 0.00 0.00 0.00 73 1010.6
20260506123033 14 0 16.1 29.0 0.00 0.00 0.00 73 1010.6
20260506122933 14 351 17.7 29.0 0.00 0.00 0.00 72 1010.6
20260506122834 14 348 17.7 29.0 0.00 0.00 0.00 72 1010.6
20260506122736 14 290 14.5 24.1 0.00 0.00 0.00 72 1010.6
20260506122636 15 343 14.5 24.1 0.00 0.00 0.00 73 1010.6
20260506122536 15 307 16.1 24.1 0.00 0.00 0.00 72 1010.6
20260506122434 15 323 14.5 24.1 0.00 0.00 0.00 73 1010.7
20260506122333 15 338 14.5 24.1 0.00 0.00 0.00 73 1010.7
20260506122233 15 348 16.1 24.1 0.00 0.00 0.00 72 1010.7
20260506122134 15 303 14.5 24.1 0.00 0.00 0.00 74 1010.7
20260506122034 15 334 11.3 24.1 0.00 0.00 0.00 74 1010.7
20260506121933 14 323 11.3 24.1 0.00 0.00 0.00 74 1010.6
20260506121833 14 323 14.5 30.6 0.00 0.00 0.00 73 1010.6
20260506121733 14 355 16.1 30.6 0.00 0.00 0.00 72 1010.7
20260506121633 14 353 16.1 30.6 0.00 0.00 0.00 73 1010.6
20260506121533 14 338 12.9 30.6 0.00 0.00 0.00 74 1010.6
20260506121433 14 334 9.7 30.6 0.00 0.00 0.00 74 1010.7
20260506121335 14 333 12.9 30.6 0.00 0.00 0.00 74 1010.7
20260506121237 14 341 14.5 30.6 0.00 0.00 0.00 75 1010.6
20260506121136 14 321 14.5 30.6 0.00 0.00 0.00 75 1010.6
20260506121037 13 348 16.1 30.6 0.00 0.00 0.00 74 1010.7
20260506120934 13 357 19.3 30.6 0.00 0.00 0.00 73 1010.6
20260506120834 13 345 14.5 30.6 0.00 0.00 0.00 74 1010.6
20260506120734 13 347 17.7 30.6 0.00 0.00 0.00 72 1010.7
20260506120633 14 0 20.9 30.6 0.00 0.00 0.00 73 1010.7
20260506120534 14 323 17.7 27.4 0.00 0.00 0.00 73 1010.6
20260506120432 14 353 17.7 27.4 0.00 0.00 0.00 73 1010.7
20260506120333 14 336 16.1 27.4 0.00 0.00 0.00 73 1010.7
20260506120233 14 0 16.1 27.4 0.00 0.00 0.00 71 1010.5
20260506120133 14 340 17.7 27.4 0.00 0.00 0.00 71 1010.6
20260506120033 14 336 16.1 27.4 0.00 0.00 0.00 72 1010.6
20260506115934 14 334 12.9 27.4 0.00 0.00 0.00 74 1010.6
20260506115833 14 348 12.9 27.4 0.00 0.00 0.00 74 1010.5
20260506115733 14 333 16.1 27.4 0.00 0.00 0.00 74 1010.5
20260506115633 14 337 16.1 27.4 0.00 0.00 0.00 73 1010.5
20260506115534 14 338 16.1 27.4 0.00 0.00 0.00 72 1010.5
20260506115433 14 292 16.1 27.4 0.00 0.00 0.00 72 1010.6
20260506115348 14 0 16.1 24.1 0.00 0.00 0.00 72 1010.5
20260506115233 14 0 14.5 24.1 0.00 0.00 0.00 72 1010.5
20260506115133 14 305 14.5 24.1 0.00 0.00 0.00 72 1010.5
20260506115034 14 329 14.5 24.1 0.00 0.00 0.00 73 1010.5
20260506114934 14 341 16.1 24.1 0.00 0.00 0.00 73 1010.6
20260506114833 14 324 14.5 24.1 0.00 0.00 0.00 74 1010.5
20260506114734 14 292 14.5 24.1 0.00 0.00 0.00 74 1010.5
20260506114633 14 0 14.5 24.1 0.00 0.00 0.00 73 1010.6
20260506114533 14 350 14.5 24.1 0.00 0.00 0.00 74 1010.6
20260506114433 14 343 11.3 20.9 0.00 0.00 0.00 75 1010.4
20260506114333 14 347 11.3 20.9 0.00 0.00 0.00 74 1010.5
20260506114233 14 351 12.9 20.9 0.00 0.00 0.00 75 1010.5
20260506114134 14 286 12.9 20.9 0.00 0.00 0.00 75 1010.5
20260506114033 14 338 12.9 20.9 0.00 0.00 0.00 75 1010.5
20260506113935 13 355 12.9 20.9 0.00 0.00 0.00 75 1010.5
20260506113835 13 338 11.3 20.9 0.00 0.00 0.00 74 1010.5
20260506113733 13 336 12.9 20.9 0.00 0.00 0.00 74 1010.5
20260506113634 13 357 14.5 22.5 0.00 0.00 0.00 74 1010.6
20260506113534 13 338 12.9 22.5 0.00 0.00 0.00 74 1010.5
20260506113433 13 0 12.9 22.5 0.00 0.00 0.00 74 1010.5
20260506113335 13 323 12.9 25.7 0.00 0.00 0.00 74 1010.5
20260506113233 13 0 11.3 25.7 0.00 0.00 0.00 75 1010.6
20260506113132 13 337 11.3 25.7 0.00 0.00 0.00 75 1010.6
20260506113034 13 303 14.5 25.7 0.00 0.00 0.00 74 1010.5
20260506112932 13 348 14.5 25.7 0.00 0.00 0.00 75 1010.5
20260506112834 13 338 16.1 25.7 0.00 0.00 0.00 75 1010.5
20260506112734 13 0 16.1 25.7 0.00 0.00 0.00 75 1010.5
20260506112633 13 340 14.5 25.7 0.00 0.00 0.00 75 1010.4
20260506112532 13 333 14.5 25.7 0.00 0.00 0.00 75 1010.5
20260506112434 13 320 14.5 25.7 0.00 0.00 0.00 75 1010.5
20260506112333 13 358 12.9 22.5 0.00 0.00 0.00 75 1010.6
20260506112232 13 4 12.9 22.5 0.00 0.00 0.00 75 1010.6
20260506112134 13 0 12.9 22.5 0.00 0.00 0.00 75 1010.5
20260506112033 13 0 12.9 24.1 0.00 0.00 0.00 75 1010.4
20260506111934 13 334 11.3 24.1 0.00 0.00 0.00 74 1010.5
20260506111833 13 306 11.3 24.1 0.00 0.00 0.00 75 1010.4
20260506111733 13 314 14.5 24.1 0.00 0.00 0.00 75 1010.4
20260506111633 13 345 14.5 24.1 0.00 0.00 0.00 75 1010.5
20260506111533 13 330 11.3 24.1 0.00 0.00 0.00 75 1010.5
20260506111432 13 345 9.7 24.1 0.00 0.00 0.00 76 1010.4
20260506111333 13 312 12.9 24.1 0.00 0.00 0.00 75 1010.4
20260506111234 13 321 14.5 24.1 0.00 0.00 0.00 75 1010.4
20260506111134 13 331 16.1 24.1 0.00 0.00 0.00 75 1010.5
20260506111036 13 355 16.1 22.5 0.00 0.00 0.00 75 1010.5
20260506110934 13 327 17.7 22.5 0.00 0.00 0.00 75 1010.5
20260506110834 13 354 14.5 22.5 0.00 0.00 0.00 75 1010.5
20260506110735 13 309 14.5 22.5 0.00 0.00 0.00 75 1010.4
20260506110633 13 338 14.5 22.5 0.00 0.00 0.00 75 1010.5
20260506110536 13 334 14.5 22.5 0.00 0.00 0.00 75 1010.4
20260506110434 13 327 14.5 22.5 0.00 0.00 0.00 76 1010.5
20260506110333 13 341 12.9 22.5 0.00 0.00 0.00 76 1010.5
20260506110234 13 351 9.7 22.5 0.00 0.00 0.00 76 1010.6
20260506110134 13 348 8.0 22.5 0.00 0.00 0.00 76 1010.5
20260506110033 13 323 12.9 22.5 0.00 0.00 0.00 75 1010.6
20260506105933 13 358 14.5 22.5 0.00 0.00 0.00 75 1010.5
20260506105833 13 338 11.3 20.9 0.00 0.00 0.00 76 1010.5
20260506105733 13 333 11.3 20.9 0.00 0.00 0.00 76 1010.6
20260506105633 13 355 11.3 20.9 0.00 0.00 0.00 77 1010.6
20260506105536 13 345 9.7 20.9 0.00 0.00 0.00 77 1010.6
20260506105434 13 323 12.9 20.9 0.00 0.00 0.00 76 1010.5
20260506105333 13 310 12.9 20.9 0.00 0.00 0.00 77 1010.5